GFSFLT1_prec_cloud_003.txt.gz
Cloud_Cover
5 0 0 0 0 0 0 71 0 5 11 76 66 64 10 26 98 100 72 48 40 6 5 5 5 5 4 4 2 6 68 98
1 0 0 0 0 0 58 93 5 73 97 97 100 62 77 100 88 7 72 82 98 30 5 5 5 4 4 9 77 36 16 6
0 0 0 0 1 5 5 29 43 98 76 100 100 91 95 90 88 100 100 80 18 78 80 5 5 22 79 8 5 27 15 5
0 0 0 2 5 25 25 48 74 100 100 73 48 99 76 100 98 79 52 64 100 97 94 26 23 6 13 12 5 5 5 5
0 2 5 5 96 100 100 100 96 73 99 53 100 100 96 68 99 80 92 100 100 100 96 5 5 5 5 5 5 31 44 5
0 1 36 100 100 98 100 55 5 44 84 100 100 94 99 100 100 100 99 89 37 16 5 1 8 30 58 74 96 71 86 77
21 100 99 100 98 91 78 84 88 100 99 86 100 100 100 85 40 5 5 12 14 40 97 100 100 100 100 100 100 90 47 35
94 100 100 76 5 5 41 100 96 88 84 89 55 18 30 9 35 86 100 100 100 100 100 100 100 100 76 87 100 99 100 52
80 56 24 39 76 95 80 75 87 98 94 71 64 6 94 95 100 100 100 100 100 86 6 8 5 71 99 100 97 38 84 90
65 70 100 100 59 12 13 100 100 100 100 92 84 14 28 100 100 100 99 100 90 61 16 6 95 100 100 89 85 64 76 94
100 80 58 70 100 100 100 100 98 70 100 78 94 100 100 100 100 100 100 46 92 17 95 64 100 98 81 95 100 100 100 98
100 98 100 97 100 100 98 93 100 100 94 100 97 100 100 98 83 85 100 100 84 26 39 68 97 84 69 95 98 83 98 99
85 96 84 100 100 100 100 100 97 69 100 100 100 100 100 100 100 100 100 33 96 91 97 65 100 100 100 100 100 99 100 100
100 100 100 89 100 100 100 98 98 100 100 100 100 100 100 88 27 73 69 100 100 100 89 36 49 70 92 94 97 100 100 100
100 67 43 71 100 95 93 100 100 94 83 88 73 27 13 18 70 100 100 100 100 56 16 5 16 26 43 86 65 5 6 28
63 95 99 100 99 100 89 100 88 58 92 39 36 9 35 72 100 100 100 65 7 5 5 8 85 96 99 6 4 5 5 5
100 100 100 97 90 88 96 80 92 65 100 89 67 91 99 100 100 100 100 5 5 5 43 98 100 100 95 5 2 5 5 5
49 61 80 100 80 5 33 100 42 26 88 100 100 100 99 100 100 100 100 82 66 96 100 100 100 100 97 6 5 5 5 5
100 100 94 15 5 5 42 100 100 100 100 51 98 100 100 100 100 100 93 96 100 100 98 99 93 100 100 31 5 36 95 99

GFSFLT1_prec_cloud_006.txt.gz
Cloud_Cover
100 82 37 99 25 2 0 26 5 7 90 5 2 5 5 72 82 5 5 67 5 5 5 5 18 46 5 3 4 4 5 5
34 11 9 1 1 0 0 0 12 98 27 5 5 48 98 54 90 40 17 89 16 81 19 50 87 28 5 5 2 5 5 5
0 0 0 0 0 0 2 1 18 70 12 15 93 100 23 46 58 35 84 5 18 100 96 48 88 98 91 5 0 0 0 1
0 0 0 0 4 5 40 63 100 100 38 50 41 5 46 73 77 100 89 72 52 55 69 12 4 0 15 0 2 7 5 53
0 0 0 4 55 100 100 83 98 100 99 15 5 88 100 84 91 5 5 5 64 40 44 5 5 5 5 5 5 5 5 4
0 0 3 5 12 90 97 64 84 5 6 98 88 36 84 61 37 81 99 100 93 100 63 24 7 8 65 96 59 94 97 19
0 2 5 12 37 100 100 75 5 5 5 84 67 87 100 100 100 100 100 100 100 100 100 100 100 100 100 82 16 6 75 68
30 36 26 5 5 35 15 96 99 74 74 99 100 100 100 100 100 100 100 100 100 100 100 100 38 29 46 29 64 100 100 78
5 3 6 4 63 34 72 100 100 100 100 53 83 100 100 100 100 89 34 70 93 94 66 10 5 10 7 80 48 82 63 5
4 82 100 99 100 98 100 100 100 100 100 100 100 100 73 100 95 59 74 51 98 70 74 100 100 5 5 5 100 100 96 93
100 100 57 25 32 81 100 100 100 100 99 99 100 100 100 99 84 48 44 92 77 69 5 5 82 100 100 100 100 40 96 81
91 100 37 76 93 98 75 66 63 64 100 100 100 31 6 5 5 5 5 4 0 0 1 5 5 10 38 53 100 100 100 100
5 5 5 32 20 8 10 22 59 85 41 81 16 90 65 5 5 5 0 4 5 5 25 5 13 26 5 77 6 9 45 78
5 5 5 7 17 9 36 58 8 59 100 41 9 45 5 5 5 73 24 5 24 48 5 5 5 0 19 5 46 81 43 6
34 53 32 52 21 36 63 90 94 23 42 51 7 35 5 3 12 6 5 5 5 5 5 5 5 47 28 5 14 5 5 1
66 75 5 5 6 44 95 62 33 6 36 50 6 3 10 3 5 2 5 5 5 5 4 5 5 6 60 29 4 0 0 0
37 6 5 31 73 10 5 5 10 72 14 5 4 77 100 100 86 37 5 51 18 5 12 58 5 5 5 5 3 5 5 5
5 13 85 84 8 5 5 5 5 47 100 29 5 94 100 100 75 22 91 76 44 59 100 81 68 6 5 5 5 12 47 5
50 58 36 70 5 5 10 5 3 1 8 97 52 26 30 100 62 8 99 100 99 100 99 78 58 5 5 5 5 5 5 5

GFSFLT1_prec_cloud_009.txt.gz
Cloud_Cover
54 68 39 5 5 3 15 5 59 97 88 100 58 49 39 12 27 24 4 5 10 39 49 6 5 5 5 14 5 0 1 5
0 1 5 5 45 9 5 0 0 5 36 5 76 81 65 57 46 79 86 50 16 74 5 5 5 0 2 4 2 5 5 5
0 0 0 1 2 4 5 14 26 4 4 5 16 72 92 92 99 92 87 54 70 5 5 2 3 2 5 5 2 2 5 5
0 0 1 0 4 4 57 50 87 46 57 22 100 45 5 30 74 97 97 64 90 77 9 7 5 5 5 5 4 5 2 5
0 0 0 0 0 4 5 94 100 86 96 97 98 39 30 96 90 13 31 54 68 61 68 10 5 5 5 5 5 5 5 5
0 0 0 0 0 0 5 19 13 99 100 39 93 100 87 24 69 91 43 7 7 7 30 61 89 100 100 89 57 6 5 5
0 0 0 0 2 5 5 30 37 5 29 63 75 97 89 93 95 97 95 99 100 100 100 94 13 9 5 5 4 5 5 5
0 2 5 3 1 3 70 100 100 20 4 1 4 11 49 86 95 100 100 98 78 58 23 5 5 2 0 0 40 98 92 56
5 5 5 94 100 41 20 99 100 100 96 97 70 87 90 100 100 100 81 75 87 7 4 4 2 0 4 13 26 84 78 100
5 2 55 5 58 85 92 60 45 25 95 85 80 86 98 58 100 95 5 18 53 5 5 0 2 0 0 5 19 5 5 16
71 5 5 5 5 5 5 5 5 5 5 13 52 100 100 57 52 29 17 5 5 3 0 0 0 0 0 3 13 58 18 90
5 5 5 5 5 6 5 5 5 5 6 6 10 19 8 5 5 0 0 0 0 0 0 1 5 47 5 4 0 0 1 17
5 2 5 28 69 7 5 5 5 6 40 8 42 66 19 20 5 3 5 0 0 0 0 0 0 0 3 4 5 5 5 5
5 25 27 19 7 20 5 13 72 41 81 70 13 5 39 96 100 99 99 100 79 90 2 0 0 0 0 3 5 5 5 5
6 5 6 6 5 6 74 65 100 51 5 5 5 2 19 99 11 52 100 100 51 10 2 0 0 4 5 5 5 2 4 5
5 5 5 5 51 27 25 47 5 5 0 0 0 49 27 31 98 85 100 100 98 100 100 4 5 4 5 5 13 8 5 4
5 5 5 5 5 70 11 5 5 5 5 0 0 4 42 36 96 100 100 100 12 100 77 55 0 5 5 62 26 30 5 5
5 5 5 5 5 5 5 5 5 5 5 3 0 5 5 26 46 100 100 100 86 100 26 5 5 52 94 100 26 5 5 5
5 5 5 5 5 5 5 6 32 5 5 0 2 4 0 3 88 100 100 100 100 52 94 5 5 13 8 4 5 5 5 20

GFSFLT1_prec_cloud_012.txt.gz
Cloud_Cover
1 19 9 11 5 13 93 99 49 81 67 65 12 5 6 5 13 5 5 7 74 94 96 34 58 7 5 0 0 0 5 5
5 5 1 0 4 5 5 87 100 100 54 96 4 4 17 26 66 79 100 95 56 73 29 5 5 5 0 0 0 0 0 4
0 3 16 100 13 23 86 79 39 20 5 5 10 47 94 89 98 87 22 66 82 45 70 62 5 5 5 5 2 0 0 0
69 45 21 1 20 3 0 1 3 76 88 86 81 94 100 95 81 74 100 97 40 4 4 3 5 5 7 6 5 5 5 3
46 10 4 0 0 0 0 2 5 5 45 95 100 99 100 82 6 35 22 52 19 27 10 23 44 14 5 5 5 7 5 5
100 100 82 0 0 0 0 4 12 99 100 100 100 100 62 46 85 100 100 100 100 93 100 100 97 62 5 5 0 0 3 5
28 25 4 3 4 4 29 11 5 67 77 99 100 97 75 77 99 100 100 74 58 13 98 100 85 41 75 77 1 7 54 98
96 16 79 41 5 58 86 92 88 85 65 18 4 5 5 43 91 100 98 100 98 44 82 44 20 6 0 0 0 1 6 14
51 5 2 0 4 76 98 95 94 94 44 5 5 59 100 100 100 50 93 72 68 4 5 5 0 0 0 0 0 0 0 5
5 7 5 5 5 5 16 81 74 60 6 5 7 12 54 78 3 0 0 0 1 5 3 0 0 0 0 0 0 0 0 2
5 5 5 4 5 56 97 100 88 80 33 5 5 5 4 1 0 8 25 21 14 70 95 39 21 57 4 2 2 0 0 0
47 14 5 43 76 60 30 5 5 5 5 5 0 2 5 8 19 20 9 5 5 40 52 34 80 100 100 0 0 0 0 2
94 88 38 5 5 5 8 5 5 5 5 4 5 14 7 18 61 16 27 100 100 98 100 100 100 100 99 3 0 5 57 96
85 77 83 48 5 5 3 3 5 5 5 5 18 5 5 3 29 32 64 100 89 100 100 100 100 100 100 37 1 5 5 5
95 35 5 5 5 5 5 6 5 5 5 5 5 5 4 0 60 81 100 98 94 100 100 100 100 100 14 4 5 5 5 5
76 87 21 5 5 6 9 5 5 5 5 5 5 0 0 0 1 56 52 70 20 98 100 100 83 9 15 95 6 5 5 2
100 33 5 5 5 5 5 5 5 5 5 3 0 0 0 0 0 28 33 100 100 100 97 69 5 27 99 5 5 5 5 5
64 5 5 18 7 5 5 5 5 5 2 5 4 0 0 1 4 6 53 92 100 99 45 39 19 100 15 5 5 6 11 5
80 17 56 70 17 5 5 5 5 5 5 1 0 0 4 4 5 5 69 80 94 73 100 100 100 6 5 24 54 9 5 5

GFSFLT1_prec_cloud_015.txt.gz
Cloud_Cover
25 9 72 67 100 99 100 100 100 100 100 100 100 100 38 33 5 5 56 59 74 98 88 74 6 5 4 0 0 0 0 0
41 5 4 26 17 12 100 100 100 100 70 100 77 76 59 29 5 92 100 98 99 43 5 5 5 5 3 0 0 0 0 0
100 71 68 26 100 96 61 20 36 99 100 50 16 41 26 96 100 48 22 64 5 5 5 4 1 0 5 5 5 5 5 5
49 84 89 17 18 5 3 9 2 6 0 5 17 56 30 24 23 14 24 5 2 2 4 4 4 6 26 5 22 29 12 4
97 9 5 83 62 29 19 23 0 0 5 5 44 99 97 43 6 4 0 1 5 9 59 14 81 100 98 100 99 19 5 13
5 39 96 77 5 5 0 0 5 5 5 44 91 100 100 97 72 31 76 100 100 100 17 100 100 100 37 75 0 3 2 5
5 5 95 8 100 100 2 0 1 5 5 5 5 5 3 23 68 35 23 100 5 14 7 28 22 5 13 0 0 0 0 0
6 91 100 92 23 4 4 12 42 5 5 5 5 5 5 5 11 21 25 5 5 5 5 5 5 5 4 5 3 2 0 0
100 88 8 5 3 5 5 5 13 5 5 5 5 5 5 3 0 6 10 5 4 5 6 23 50 45 96 60 96 91 5 65
4 0 5 5 5 5 5 5 5 5 5 5 5 5 4 6 46 19 4 2 10 98 98 99 100 100 100 100 84 9 50 14
4 5 16 27 39 9 5 5 23 8 4 4 5 6 5 5 5 0 1 6 68 24 6 73 99 100 100 100 79 57 100 49
23 59 82 96 95 94 94 71 82 5 50 53 22 5 2 5 3 1 8 94 89 100 96 99 100 100 100 100 99 100 100 22
20 100 73 58 99 79 100 83 48 35 6 5 0 5 5 0 0 0 70 93 98 100 94 83 100 100 100 100 99 100 99 5
57 100 100 100 74 100 87 99 79 5 14 18 4 0 0 5 3 0 0 0 0 26 59 29 98 100 100 81 64 83 40 9
7 82 74 66 98 100 89 5 5 8 5 5 5 5 5 2 0 0 0 4 68 68 68 99 100 100 97 6 4 89 10 5
84 32 55 100 100 72 14 5 5 5 5 5 5 5 5 0 0 0 3 74 100 26 10 71 100 47 97 5 97 6 5 5
100 100 100 99 40 5 5 5 5 5 5 5 5 5 3 0 0 5 5 5 5 86 41 95 6 98 11 99 5 5 5 16
100 39 5 5 10 5 5 5 5 5 16 11 5 5 5 0 5 3 5 5 14 21 5 6 61 90 37 9 34 5 6 61
32 6 5 36 7 5 5 28 94 12 33 5 5 4 2 7 24 5 5 5 18 10 25 99 100 23 5 5 40 5 5 5

GFSFLT1_prec_cloud_018.txt.gz
Cloud_Cover
100 100 68 100 100 97 75 100 100 100 100 100 54 83 100 100 100 100 98 96 97 100 24 5 8 5 5 5 4 1 0 0
89 72 85 100 96 69 100 100 100 100 100 100 100 100 100 100 23 18 96 96 70 5 5 5 32 5 2 0 2 5 5 5
66 56 50 51 84 100 88 63 80 41 25 76 66 62 10 5 5 5 5 5 5 5 7 4 1 1 2 6 97 33 5 4
13 5 55 94 24 58 39 5 5 5 5 2 5 5 5 5 5 5 2 1 0 1 4 5 5 5 5 10 5 5 5 2
5 94 26 5 21 12 47 7 8 5 5 5 65 55 5 2 0 0 0 4 5 5 48 46 42 6 5 3 0 0 0 5
40 75 100 48 45 52 88 97 26 5 5 53 33 5 2 0 0 0 6 30 78 72 68 6 0 4 3 4 1 0 0 0
89 84 100 92 100 100 100 100 53 18 10 4 4 2 4 5 2 26 39 24 3 0 2 5 5 6 54 5 5 5 5 1
5 63 100 90 70 24 8 5 44 23 5 5 5 5 2 0 0 0 0 0 0 0 4 5 5 42 26 12 49 64 31 50
72 79 26 4 5 5 5 5 17 8 27 5 4 0 0 0 0 0 2 5 5 5 5 5 5 5 26 63 96 99 65 99
5 0 2 5 5 7 34 100 100 96 5 5 2 5 5 5 6 11 16 5 5 0 49 90 41 72 42 95 100 100 97 94
1 4 5 5 5 12 51 99 100 12 32 43 27 46 34 38 51 30 5 5 2 5 87 12 34 86 95 100 99 96 59 84
5 5 5 5 5 47 53 100 71 95 100 91 72 5 5 5 5 5 2 0 0 0 2 84 100 94 98 5 28 49 87 29
5 5 67 83 97 100 77 30 79 100 92 57 5 5 5 30 7 2 0 4 2 0 44 100 100 40 5 64 54 74 5 3
5 58 90 99 87 75 35 99 95 52 86 5 6 87 36 5 3 2 5 1 1 5 92 96 5 46 88 100 63 5 5 5
5 83 98 100 81 76 100 29 62 22 5 5 8 5 5 4 5 5 2 0 2 5 95 44 81 100 100 100 12 5 5 4
9 80 99 16 91 95 5 5 5 5 5 5 5 5 5 13 5 6 4 1 5 93 99 78 97 100 99 5 5 5 5 5
68 100 36 100 65 80 80 5 5 5 7 36 8 16 20 42 36 5 0 4 52 99 46 92 100 65 5 80 6 5 5 5
100 100 100 99 100 59 7 15 55 92 79 42 13 44 81 59 6 0 1 59 83 26 9 10 19 14 79 18 13 5 5 5
100 100 90 98 64 56 90 98 95 91 96 100 99 69 69 5 3 0 36 94 5 66 96 88 96 80 5 5 5 5 5 5

GFSFLT1_prec_cloud_021.txt.gz
Cloud_Cover
100 100 95 80 70 72 42 100 100 100 100 100 100 100 100 100 100 100 100 100 93 28 11 5 0 0 0 0 2 2 0 5
100 70 96 89 100 100 100 100 88 100 100 100 100 100 100 100 100 100 95 80 5 5 5 5 5 0 0 1 5 5 2 0
68 47 35 39 58 44 45 90 100 100 100 87 5 5 13 26 13 38 1 0 2 0 0 4 5 19 70 21 4 0 0 0
75 26 11 5 9 7 5 17 10 5 90 66 5 5 4 5 4 0 0 0 2 1 5 5 5 4 1 0 4 5 5 2
1 5 5 52 90 61 94 75 38 62 65 21 76 40 40 0 0 0 0 0 0 5 4 5 5 0 2 3 0 0 0 0
0 5 20 5 5 32 89 78 23 62 77 47 3 0 0 0 0 0 0 0 0 0 2 0 0 0 0 5 3 5 5 11
6 55 55 5 11 3 8 5 5 5 5 5 22 5 2 1 4 2 3 0 0 0 0 0 0 1 6 83 84 56 40 16
5 5 5 26 47 4 5 5 5 12 28 5 5 5 26 5 10 5 5 0 0 0 2 5 6 80 100 100 51 5 5 5
7 59 90 35 4 5 5 5 5 5 5 38 13 5 37 36 18 5 0 3 5 46 54 5 42 100 83 49 6 5 5 5
5 5 0 0 5 5 5 5 11 41 99 100 99 98 22 5 5 7 5 9 58 98 9 5 8 2 5 39 7 6 5 5
2 0 0 0 2 5 5 65 100 100 93 59 77 5 5 5 5 16 81 32 5 5 5 2 2 5 56 50 48 44 5 6
0 3 5 8 43 54 37 79 100 100 100 100 9 5 5 5 35 44 5 5 5 4 5 5 5 5 100 76 31 25 55 86
5 5 5 47 22 90 100 100 100 100 100 72 22 85 38 5 5 5 5 5 5 4 5 5 5 96 93 5 14 89 99 90
5 5 5 38 90 100 100 64 90 100 65 77 48 5 5 5 5 10 5 5 5 5 5 9 84 98 85 99 98 100 100 17
33 40 78 92 100 100 54 87 100 53 18 8 5 5 22 41 40 5 14 14 5 5 6 28 68 53 100 100 100 99 6 5
62 5 80 100 100 51 96 100 16 5 5 5 5 24 69 68 6 96 89 5 5 1 6 5 13 97 100 100 78 77 25 5
48 52 100 100 62 100 100 30 5 5 5 18 52 100 98 100 100 100 7 30 4 5 5 5 6 16 68 83 5 5 4 0
32 86 100 100 100 92 60 78 17 32 57 83 100 100 100 100 100 38 100 25 0 16 5 5 49 91 60 5 5 5 4 5
60 84 100 100 100 100 93 69 31 83 100 100 100 100 100 99 48 34 14 0 1 6 5 5 52 49 5 5 5 4 5 5

GFSFLT1_prec_cloud_027.txt.gz
Cloud_Cover
91 98 92 100 100 100 100 100 100 97 68 91 100 100 100 100 100 100 96 31 10 87 94 86 30 22 16 5 9 5 0 0
100 100 32 39 63 99 100 100 100 62 82 91 95 99 100 80 100 100 100 20 21 96 100 100 100 82 28 58 1 3 0 0
79 78 56 30 68 99 100 100 98 87 65 87 78 23 0 3 5 7 55 20 18 23 42 47 5 8 0 0 3 4 0 0
5 21 53 84 99 98 63 74 95 57 96 22 6 1 1 5 16 59 94 21 6 69 65 65 44 19 0 0 5 5 5 5
20 50 100 100 87 95 55 61 97 37 0 0 4 10 67 44 33 10 19 43 83 33 4 6 0 2 5 5 5 5 5 5
44 32 16 94 100 100 96 35 32 2 0 5 5 14 7 12 27 91 82 48 5 5 3 2 1 4 2 5 5 5 6 82
1 0 1 20 56 9 12 2 0 0 0 5 5 5 5 5 60 100 80 46 45 42 62 1 0 3 5 5 54 80 100 88
0 0 0 0 0 0 3 5 0 0 3 5 5 5 54 43 92 50 5 55 70 84 35 5 5 5 5 5 18 92 66 74
0 0 0 0 0 2 5 3 0 0 5 5 8 40 49 98 75 5 5 60 99 6 5 5 5 5 5 36 51 90 36 7
0 0 0 0 0 5 5 4 3 5 5 5 13 66 100 100 40 8 7 92 10 5 5 5 5 5 5 81 59 23 56 5
1 1 5 0 5 5 6 5 5 5 29 59 63 80 100 100 26 5 78 56 14 5 5 5 5 5 30 85 93 13 57 22
5 5 5 5 6 27 5 8 8 5 5 22 91 100 100 21 81 36 98 80 5 5 5 5 5 8 29 5 11 5 11 76
8 5 5 5 9 22 23 12 5 62 41 52 100 100 75 78 76 83 100 12 5 5 5 6 40 48 17 68 82 23 98 100
10 34 24 6 11 21 14 42 24 100 39 93 100 83 100 99 82 100 64 5 9 5 5 21 72 75 100 98 90 100 98 85
4 30 74 100 5 14 30 100 100 100 76 100 100 70 61 41 91 95 14 31 42 51 52 19 87 95 98 100 100 75 94 100
3 84 100 81 5 5 87 100 98 96 84 100 100 87 92 82 100 71 91 100 100 58 63 50 58 100 100 42 56 60 88 100
5 70 10 6 25 5 51 78 99 85 100 100 90 88 100 100 100 100 100 100 100 100 77 97 88 100 96 61 45 5 5 6
10 5 5 20 92 86 96 58 96 100 100 99 94 100 100 100 100 100 100 100 77 43 76 99 84 99 21 4 6 0 5 10
6 16 7 33 69 91 40 100 100 100 100 100 100 100 96 100 100 100 100 100 93 97 100 100 100 100 54 17 5 0 11 62

GFSFLT1_prec_cloud_030.txt.gz
Cloud_Cover
49 86 83 100 100 100 100 100 100 100 100 100 94 89 100 99 99 71 37 18 91 87 60 37 96 100 88 94 8 5 3 0
73 86 100 100 77 100 100 45 14 66 79 72 100 100 100 45 17 9 4 1 0 0 0 1 4 41 5 0 0 0 0 0
100 100 60 100 93 64 59 100 94 57 42 8 5 25 18 7 0 3 4 5 5 5 5 34 5 1 5 4 0 0 0 0
100 82 76 46 49 20 56 100 13 5 5 5 90 6 0 0 0 0 5 26 64 7 26 27 5 5 5 1 0 0 0 0
5 23 53 57 16 5 53 22 5 5 70 87 36 0 0 2 26 0 5 29 72 78 15 4 5 5 1 0 0 3 1 2
5 5 5 10 22 11 64 31 24 94 1 57 0 93 99 14 5 24 83 89 91 5 0 5 5 5 0 0 5 5 5 5
12 48 32 100 65 0 26 70 92 2 0 8 0 0 5 5 13 100 100 92 6 3 4 5 5 0 1 0 2 16 16 5
67 88 14 0 60 18 57 8 0 0 0 0 0 5 5 5 13 5 66 62 57 16 5 5 4 5 5 5 5 5 10 5
7 10 38 45 2 0 0 0 0 0 0 5 5 5 5 7 6 20 98 100 100 28 5 54 35 69 5 14 16 24 5 5
0 0 0 0 0 0 0 0 0 8 16 5 5 5 5 72 100 100 100 100 25 5 5 5 75 72 86 44 5 5 5 7
0 0 0 0 0 0 0 0 5 95 6 5 5 5 15 56 97 100 100 20 65 54 5 64 100 100 100 100 100 80 5 5
0 0 0 0 0 5 5 4 5 82 12 5 5 8 89 100 96 100 100 99 80 5 84 100 100 100 100 100 18 5 5 29
0 0 0 5 5 9 5 98 98 100 47 5 12 30 100 82 95 100 100 77 45 80 88 100 74 100 84 5 5 5 48 100
5 14 5 5 3 24 78 97 59 9 5 6 93 100 100 100 73 99 85 66 99 100 96 34 50 26 46 66 53 10 100 66
4 76 100 57 42 40 93 89 62 26 7 80 100 100 100 100 94 100 96 62 94 86 93 87 95 99 95 98 35 100 88 38
5 5 86 100 99 59 71 100 100 51 9 80 100 100 100 100 97 100 100 100 100 100 100 100 98 98 100 100 100 100 100 66
5 5 5 14 98 100 100 100 100 27 57 100 100 100 100 99 97 100 100 87 100 100 100 100 100 84 100 100 100 100 100 100
5 5 5 5 60 100 100 100 100 39 100 100 100 100 100 100 100 100 100 100 100 100 100 100 100 88 100 100 100 100 98 92
43 59 14 5 28 45 97 100 100 100 100 100 100 100 94 100 98 93 100 100 100 100 100 100 100 100 100 100 100 100 82 22

GFSFLT1_prec_cloud_033.txt.gz
Cloud_Cover
100 100 80 23 41 99 100 100 100 100 100 100 100 100 100 100 100 93 100 100 100 100 57 40 20 5 4 0 0 0 0 0
100 100 100 100 96 100 100 100 100 100 100 100 100 100 100 100 100 100 85 100 87 74 36 32 5 5 5 0 0 0 0 0
96 84 100 100 100 100 69 63 98 100 100 100 99 100 34 7 14 12 18 59 61 15 5 23 5 12 0 0 0 0 0 0
34 62 98 100 95 100 81 63 14 10 19 93 100 17 21 21 12 5 5 5 5 5 5 5 5 3 0 0 0 0 0 0
18 6 10 5 63 83 54 19 10 5 15 29 9 5 4 0 0 2 5 24 12 5 5 5 5 5 55 2 0 0 0 0
5 4 0 1 5 5 7 5 5 10 7 4 2 0 0 0 0 0 5 5 3 5 5 38 100 90 93 5 5 5 5 5
67 36 0 5 5 5 5 4 0 3 2 6 48 12 0 0 0 5 24 62 89 46 24 100 100 97 25 0 0 2 5 5
78 13 5 2 0 0 0 0 0 0 5 0 0 0 0 0 47 54 80 99 82 73 94 100 100 5 5 5 5 5 5 5
28 2 0 0 0 0 0 0 0 0 0 2 1 0 0 2 5 11 41 85 97 14 100 100 21 5 5 21 86 74 35 48
0 0 0 0 0 0 0 0 0 0 0 5 5 5 5 31 87 55 100 100 82 99 72 100 96 96 84 87 100 100 100 67
0 0 0 0 0 0 0 46 0 0 0 0 5 86 50 85 93 100 100 100 100 100 71 48 99 39 8 98 91 49 5 6
0 0 0 0 0 0 0 0 0 0 5 5 7 83 87 100 99 99 100 100 100 100 96 100 55 39 41 71 5 66 86 90
0 0 0 0 0 0 0 0 2 5 5 4 4 5 84 90 100 100 100 100 97 52 62 6 5 5 5 69 35 68 75 94
0 0 0 0 0 0 0 1 5 5 5 14 46 95 100 100 100 100 100 89 75 98 45 11 65 89 79 92 46 28 100 100
0 5 5 5 29 73 98 91 90 34 79 81 98 100 100 100 100 100 100 100 100 89 92 98 100 93 97 100 99 100 100 100
0 0 5 5 7 13 9 25 75 100 100 100 100 100 100 100 98 96 100 99 100 97 100 100 100 99 100 100 100 100 100 100
5 2 5 5 14 16 5 5 5 26 64 100 100 100 79 100 34 100 100 100 100 100 100 100 100 100 100 100 100 100 100 100
5 5 5 5 7 5 15 5 13 33 85 88 100 100 100 87 94 100 100 100 100 100 100 100 100 100 100 100 100 100 100 100
18 9 7 93 5 5 5 29 37 78 100 100 100 96 100 100 100 100 100 100 100 100 100 100 100 100 100 100 100 100 100 100

GFSFLT1_prec_cloud_036.txt.gz
Cloud_Cover
100 100 100 100 100 100 100 100 100 100 100 100 100 100 100 100 100 100 100 100 100 100 100 100 100 100 44 29 5 5 3 0
100 64 74 100 100 100 100 100 100 100 100 100 100 100 100 100 100 100 100 100 100 100 100 81 17 11 42 5 5 0 4 5
100 100 100 89 34 50 94 80 70 71 83 100 99 92 100 100 100 100 100 100 98 90 47 83 87 16 5 9 8 20 77 66
100 100 100 100 69 40 77 100 100 100 100 98 79 87 80 84 93 43 39 99 100 98 67 80 26 17 70 98 91 75 56 87
74 53 63 98 65 24 6 38 93 100 73 34 60 33 41 68 48 60 63 20 5 5 5 5 5 26 93 90 75 96 100 0
12 5 5 50 8 5 22 30 69 20 5 5 5 5 5 4 0 0 1 2 5 5 5 5 68 41 69 100 100 100 99 13
5 4 25 66 10 29 100 77 19 27 5 5 3 5 5 0 0 0 4 5 11 66 80 100 100 53 100 88 44 44 6 5
45 13 24 26 17 84 73 14 4 0 0 4 1 5 5 2 3 5 45 58 74 100 70 32 100 95 78 90 41 49 5 5
100 97 3 21 28 14 4 1 0 0 0 5 5 17 96 100 99 100 100 100 100 97 100 100 100 87 93 97 90 100 5 42
5 5 5 7 5 0 0 0 1 0 0 1 79 100 100 100 100 100 100 100 99 100 93 100 100 100 99 34 80 56 87 63
0 3 72 64 0 0 0 0 0 0 0 55 100 100 100 100 100 100 100 100 100 100 100 100 100 81 98 84 100 95 98 65
0 0 0 0 0 0 0 0 2 5 0 4 19 74 100 100 100 100 100 100 84 100 100 100 78 92 96 66 100 91 74 82
0 0 3 5 3 0 0 5 5 4 3 5 10 55 69 100 99 100 45 96 100 100 99 87 31 22 15 92 97 100 100 100
0 0 0 0 0 0 1 1 2 5 6 94 85 68 94 93 100 6 5 100 65 66 73 91 70 65 30 98 98 84 95 100
0 0 5 5 6 5 16 48 29 69 71 37 40 80 96 99 61 27 40 96 66 56 68 66 98 96 89 77 73 74 80 96
0 0 4 5 2 75 74 97 93 76 100 100 99 99 82 64 16 100 100 100 80 100 100 96 100 100 100 100 100 100 100 100
2 5 0 0 2 5 18 5 59 28 8 100 100 100 100 100 100 100 100 100 100 100 100 100 100 100 100 100 100 100 100 100
0 0 0 1 1 0 2 8 16 53 30 97 100 100 95 34 98 100 90 100 100 100 100 99 100 100 100 100 100 100 100 100
5 5 3 5 5 5 5 27 55 50 100 100 100 100 100 100 100 100 100 100 96 100 100 100 100 100 100 100 100 100 100 100

GFSFLT1_prec_cloud_039.txt.gz
Cloud_Cover
100 100 97 93 100 100 100 100 100 100 100 100 100 100 100 100 100 100 100 100 100 100 100 100 100 100 97 100 100 100 63 7
100 100 100 100 100 100 100 100 100 100 100 100 100 100 100 100 100 100 100 100 100 100 100 100 100 100 100 99 69 5 17 4
100 100 100 100 100 100 100 100 100 100 100 100 100 100 100 100 100 100 100 100 100 99 72 61 89 84 96 12 4 0 5 26
100 100 100 100 100 100 100 100 100 100 100 100 100 100 100 100 100 100 100 99 75 76 50 53 35 3 1 0 1 5 66 64
74 18 5 18 86 54 100 100 100 100 56 53 9 58 25 59 90 69 70 52 47 18 1 2 30 37 84 69 89 54 5 5
100 93 50 29 10 38 5 47 99 99 79 16 16 23 18 25 5 5 4 0 1 5 7 7 7 40 28 100 32 6 5 91
77 91 100 100 68 99 50 87 100 100 100 100 73 39 37 9 5 2 0 5 6 22 91 6 64 84 100 74 68 71 18 50
5 6 75 100 89 49 85 100 100 100 96 99 71 55 20 5 5 5 5 60 98 100 62 44 100 88 99 100 100 91 63 62
7 10 88 100 100 100 100 100 100 100 99 46 57 92 30 7 13 6 72 89 100 100 100 100 100 100 100 96 100 100 100 93
0 41 4 6 96 100 100 99 92 34 13 47 2 2 4 26 42 43 100 100 100 100 100 100 100 100 100 97 100 95 100 80
2 14 18 37 83 85 18 5 3 0 0 0 0 0 4 31 75 100 100 100 100 100 100 100 100 100 100 100 95 99 98 92
0 4 2 0 7 7 8 0 0 0 0 0 5 5 10 24 100 100 100 91 87 42 61 100 100 100 100 98 100 100 100 100
0 0 0 0 0 0 0 0 0 0 0 3 4 15 9 48 100 14 64 57 74 58 100 100 100 97 98 100 100 100 100 33
0 3 0 0 0 0 0 0 5 5 24 63 15 38 51 80 93 98 100 99 92 98 100 100 100 100 88 100 94 80 28 79
0 0 2 5 5 26 23 8 33 59 50 6 37 51 52 90 100 100 100 96 100 100 100 100 100 100 100 97 64 90 82 45
5 5 75 37 5 8 23 96 100 69 17 87 82 63 100 100 100 94 100 97 89 100 100 100 100 100 95 72 100 78 15 45
2 5 0 2 5 50 100 98 11 61 66 5 46 85 100 100 100 100 100 100 100 100 100 100 100 100 100 90 86 22 64 63
4 5 5 5 5 5 5 22 99 81 8 64 21 93 100 100 100 100 100 100 100 100 100 100 100 100 100 98 19 5 5 77
1 5 5 3 5 5 5 2 4 5 5 36 94 95 100 100 100 100 100 100 100 100 100 100 100 100 99 21 72 58 15 69

GFSFLT1_prec_cloud_042.txt.gz
Cloud_Cover
100 100 60 85 20 18 89 100 100 100 100 100 100 100 100 100 100 100 100 100 100 100 100 100 100 100 100 100 100 77 95 68
100 100 100 76 30 87 28 98 100 100 99 36 100 92 94 100 100 100 100 100 100 100 100 100 100 100 100 60 16 96 35 3
100 100 100 100 100 100 99 66 90 99 100 100 100 100 100 100 100 100 100 100 100 100 99 100 68 17 15 54 54 2 0 0
100 100 100 100 100 97 83 82 99 99 100 100 100 100 100 100 100 85 100 100 96 76 67 6 31 86 29 1 0 0 4 5
100 100 100 100 100 100 100 100 100 100 100 100 100 100 97 100 70 100 97 81 95 26 11 46 8 1 0 0 4 5 70 99
5 5 90 99 100 100 100 100 100 100 100 100 100 100 76 66 62 71 61 32 68 7 4 0 0 5 4 14 91 86 99 11
49 38 67 92 96 99 94 100 100 100 100 100 100 100 100 51 75 86 65 43 1 5 5 5 5 10 79 67 98 100 100 18
97 72 53 5 9 74 99 100 100 100 100 100 100 100 100 100 100 39 22 73 22 10 19 62 60 63 69 100 100 100 100 12
90 18 6 5 81 100 100 89 100 100 100 100 100 100 100 100 100 57 99 99 66 94 98 100 100 99 100 96 100 98 19 95
82 66 74 5 49 100 100 100 100 100 100 100 82 100 100 89 100 100 100 64 94 100 100 100 99 97 100 100 100 100 99 69
20 5 5 1 4 5 72 100 100 100 100 89 28 45 61 65 94 91 80 100 100 100 100 74 96 92 99 100 99 100 100 100
11 8 5 4 5 4 9 32 21 20 7 2 2 27 81 83 100 100 100 100 100 98 78 100 100 100 97 100 90 100 100 67
5 5 31 31 14 16 26 11 26 93 82 5 92 84 94 96 99 83 84 100 100 100 100 100 100 100 98 100 100 94 85 38
0 1 20 45 74 99 82 38 70 97 33 55 95 100 99 99 94 82 86 100 100 100 95 100 96 94 100 100 96 98 89 86
0 5 2 0 1 18 17 73 78 23 2 22 41 36 17 79 100 74 100 100 96 100 93 100 100 100 100 100 100 100 100 100
0 0 0 4 10 20 14 5 5 4 4 23 7 5 5 61 96 100 100 99 97 100 91 100 100 97 100 94 100 100 100 100
0 0 0 0 0 0 5 5 5 13 67 81 50 51 100 100 97 46 28 100 100 100 100 100 100 100 100 100 100 100 100 100
0 0 3 5 5 5 6 60 99 100 100 93 91 100 100 100 100 100 100 99 100 100 100 100 100 100 100 100 100 100 100 84
5 15 52 19 5 5 42 75 67 25 64 98 85 92 100 100 100 100 100 100 100 100 100 100 100 100 100 100 100 100 66 94

GFSFLT1_prec_cloud_045.txt.gz
Cloud_Cover
100 100 42 98 95 100 100 100 100 100 100 100 100 100 100 100 100 100 100 100 100 100 100 86 90 88 98 43 100 64 40 7
100 100 98 5 7 76 100 100 100 100 100 100 100 100 100 100 100 100 100 100 100 83 14 100 100 97 100 86 5 5 36 19
100 100 100 99 52 66 98 89 100 100 100 100 100 100 100 100 100 100 100 99 99 100 100 52 31 34 8 13 11 56 5 3
100 100 100 100 100 82 42 48 100 96 88 74 82 100 100 100 41 91 97 100 100 98 100 40 5 5 5 5 13 4 5 5
100 100 100 100 100 100 100 100 92 90 56 61 45 48 40 23 76 100 100 100 100 100 100 48 5 5 5 5 0 5 5 43
12 11 9 51 67 98 96 97 99 100 95 79 51 38 62 73 72 99 94 100 100 100 100 50 5 5 5 5 6 8 44 100
100 99 100 100 100 100 100 100 100 55 34 78 99 100 100 100 99 100 100 97 34 5 55 28 19 47 16 75 58 90 100 94
96 72 75 79 100 94 41 55 96 100 100 94 100 100 100 100 100 100 100 100 84 58 78 36 55 98 95 100 100 100 100 56
61 18 20 84 86 70 18 100 100 95 94 100 100 100 100 100 100 100 100 100 98 97 83 100 100 100 100 100 100 94 100 64
91 56 58 95 95 55 46 100 100 100 100 100 100 100 100 100 100 100 100 100 99 100 66 99 100 100 98 100 100 100 100 99
100 100 22 5 5 6 5 63 100 100 100 100 100 100 67 77 99 100 100 100 97 100 100 100 100 100 100 100 100 100 100 86
100 100 60 5 5 5 0 12 15 94 78 64 61 88 100 100 100 100 100 100 100 100 100 100 100 100 100 100 100 100 100 96
100 100 48 14 5 5 0 5 5 96 87 51 96 100 100 100 100 100 100 100 100 100 100 100 100 100 100 100 100 100 100 99
94 100 52 28 10 33 33 30 53 14 93 100 100 100 100 100 100 100 100 100 100 91 100 100 100 100 100 100 100 100 99 100
64 100 9 5 52 15 50 91 77 72 97 100 100 99 100 100 100 85 84 87 100 100 100 100 100 93 100 100 100 100 100 100
0 1 4 5 5 1 4 6 5 8 17 58 100 100 94 54 22 78 100 98 75 100 100 100 100 100 100 100 100 100 100 100
5 2 0 0 0 3 5 5 5 5 4 9 55 72 9 90 100 100 100 100 92 99 100 100 100 100 100 100 100 88 100 100
5 5 4 0 0 0 3 4 4 1 0 4 73 98 100 100 100 94 100 98 100 100 100 100 100 100 100 100 100 100 100 100
2 0 0 0 0 0 0 3 2 3 5 5 23 67 71 89 100 100 99 100 100 100 99 100 100 100 92 92 91 89 73 72

GFSFLT1_prec_cloud_048.txt.gz
Cloud_Cover
100 100 100 100 100 100 100 100 100 100 100 100 100 100 100 100 100 100 100 100 100 100 82 99 100 100 100 15 25 10 5 5
100 100 100 100 45 100 100 100 100 100 100 100 100 100 100 100 100 100 100 94 78 92 91 100 100 100 97 18 5 1 5 5
100 100 100 100 12 55 99 100 100 100 100 100 100 100 100 100 100 90 85 100 100 100 100 100 98 70 23 15 4 21 5 2
100 100 100 100 100 87 99 100 100 100 100 100 100 100 100 100 100 100 100 100 100 86 100 97 100 88 6 20 5 3 4 4
100 100 100 100 100 100 97 61 95 100 100 80 100 100 100 100 100 92 14 34 90 100 99 100 100 100 45 5 2 3 5 5
63 92 5 91 12 5 90 63 48 51 99 100 16 5 6 7 66 53 100 100 100 100 100 97 99 100 76 6 6 5 14 74
27 91 58 60 48 84 77 64 48 29 45 15 53 42 44 95 100 100 97 100 100 94 69 82 98 100 99 100 6 45 88 100
100 100 100 100 100 100 71 38 83 87 89 52 40 98 100 100 100 100 100 100 100 100 100 100 100 100 88 67 99 100 81 77
56 80 100 100 100 100 100 100 100 100 100 89 99 98 100 100 100 100 100 100 100 100 100 100 100 95 100 75 100 100 100 100
66 56 64 95 100 100 81 81 65 98 100 100 100 100 100 100 100 100 100 100 100 100 100 98 100 100 88 100 100 100 100 100
80 47 5 5 12 9 25 79 76 26 100 100 100 100 100 100 100 100 100 100 100 100 100 100 100 100 100 100 100 100 100 100
100 89 33 24 16 27 6 5 7 5 5 88 100 100 100 100 100 100 100 100 100 100 100 100 100 98 100 100 100 100 100 100
100 100 100 39 28 5 5 5 5 1 2 22 56 100 100 100 100 100 100 100 100 100 100 100 100 96 100 100 100 100 100 100
84 100 100 82 77 81 72 50 32 5 7 26 72 100 100 100 100 100 100 100 100 100 100 100 100 100 100 100 100 100 100 100
100 100 93 78 100 100 99 55 34 53 49 88 95 100 100 100 100 100 100 100 100 100 100 100 100 100 100 100 100 100 100 100
5 18 96 100 100 100 50 95 94 68 77 99 98 99 99 100 89 84 77 80 93 100 100 100 100 100 100 100 100 100 100 100
99 5 5 6 58 85 65 21 17 7 36 31 69 88 97 85 48 28 5 8 74 35 45 81 100 100 100 100 100 100 100 100
100 99 44 33 6 5 5 0 3 0 0 0 11 52 27 40 18 5 39 55 89 100 100 96 100 100 100 100 98 59 82 98
90 73 60 45 6 5 0 0 0 0 2 0 0 1 5 25 38 80 89 89 100 100 100 100 100 100 88 12 14 58 75 98

GFSFLT1_prec_cloud_051.txt.gz
Cloud_Cover
100 100 100 100 100 100 100 100 100 100 100 100 100 100 100 100 100 100 100 100 100 100 100 100 91 100 100 89 68 94 96 100
100 100 100 100 100 100 100 100 100 100 100 100 100 100 100 100 100 100 100 100 100 100 100 100 100 90 98 55 100 100 100 100
100 100 100 98 100 27 85 100 100 100 100 100 100 100 100 100 100 100 100 100 100 100 100 82 97 99 40 80 97 98 86 78
100 100 100 100 96 60 41 100 100 100 100 100 100 100 100 100 100 100 100 100 100 100 100 100 100 100 100 33 83 56 100 11
100 100 100 100 100 100 100 100 96 94 100 100 100 100 100 100 100 100 100 100 100 100 97 100 99 100 100 100 100 55 27 34
84 100 100 100 100 100 100 100 100 85 98 97 97 100 100 100 100 100 99 98 95 98 97 100 100 100 100 100 100 100 100 100
98 97 100 100 100 100 99 6 5 63 55 41 7 28 11 5 43 86 71 100 97 100 99 100 100 100 100 100 100 100 100 100
100 37 56 100 80 33 20 15 84 61 75 38 55 96 40 27 11 64 96 82 99 100 100 100 100 100 100 100 100 98 97 100
84 45 68 63 15 36 5 30 8 58 100 100 100 92 92 98 100 100 100 100 100 100 100 100 100 100 100 100 100 100 100 100
96 64 34 13 59 98 80 63 94 49 100 98 100 100 96 100 100 100 100 100 100 100 100 100 100 100 100 100 100 100 100 100
71 96 18 7 13 25 34 25 89 96 97 39 67 83 68 100 100 100 100 100 100 100 100 100 100 100 100 100 100 100 100 100
56 94 98 57 6 21 57 48 31 57 83 100 100 99 95 100 90 95 100 100 100 100 100 100 100 100 100 100 100 100 100 100
5 6 24 100 97 91 33 35 57 46 27 64 100 97 100 100 100 100 100 100 100 100 100 100 100 100 100 100 100 100 100 100
5 5 5 19 95 100 100 100 100 98 100 100 100 100 100 100 100 100 100 100 100 100 100 100 100 100 100 100 100 100 100 100
5 5 4 6 84 100 100 75 98 99 93 100 94 100 100 100 100 100 100 100 100 100 100 100 100 100 100 100 100 100 100 100
13 4 2 0 0 7 100 100 100 100 82 65 95 100 100 100 100 100 100 100 100 100 100 100 100 100 89 100 100 100 100 100
5 15 22 100 29 10 90 60 83 92 83 69 60 55 83 80 78 78 90 73 85 74 50 55 100 100 42 66 100 100 100 100
5 5 4 0 16 44 7 41 38 52 5 3 0 1 1 2 5 5 45 52 59 86 100 93 88 100 100 100 98 91 98 100
5 4 0 0 5 6 5 7 13 8 5 5 5 5 15 23 40 62 75 87 92 100 100 100 100 96 96 42 92 88 60 20

GFSFLT1_prec_cloud_054.txt.gz
Cloud_Cover
66 88 99 93 100 100 100 100 100 100 100 100 100 100 100 100 100 100 100 100 100 100 100 100 100 100 100 100 100 100 100 100
90 100 100 98 100 100 100 100 100 100 100 100 100 100 100 100 100 100 100 100 100 100 100 100 100 100 94 100 90 100 27 56
64 100 100 100 100 98 93 100 100 100 100 100 100 100 100 100 100 100 100 100 100 100 100 100 100 100 100 100 100 99 75 43
100 100 100 100 100 100 100 73 100 100 100 100 100 100 100 100 100 100 100 100 100 100 100 100 100 100 100 100 80 100 97 87
100 100 100 100 65 90 100 90 13 100 100 100 100 100 100 100 100 100 100 100 100 100 100 100 100 100 96 100 100 100 100 100
47 100 100 100 100 100 47 4 5 18 30 26 100 53 72 99 100 100 100 100 100 100 100 98 46 82 61 100 100 100 100 100
100 84 90 98 30 100 100 100 100 100 100 100 63 100 100 100 100 100 100 100 100 98 99 97 73 100 100 100 100 100 100 100
82 100 100 100 91 100 96 100 100 100 30 78 99 98 94 98 100 71 82 53 94 16 63 100 100 100 100 100 100 100 100 100
100 94 82 17 58 82 95 55 36 28 22 38 83 100 93 93 100 100 97 89 78 89 100 100 100 100 100 100 100 100 100 100
95 66 21 61 100 100 33 66 5 6 10 98 50 100 100 100 100 100 100 83 100 100 100 100 100 100 100 100 100 100 100 100
16 75 7 76 56 44 13 5 5 56 24 31 43 75 98 94 100 100 100 100 85 100 100 100 100 100 100 100 100 100 100 100
44 39 5 41 90 94 85 5 5 88 93 96 100 99 92 97 64 99 100 100 64 72 100 100 100 100 100 100 100 99 100 100
5 13 65 98 31 100 90 10 63 46 100 100 100 100 67 91 100 100 100 100 100 100 100 100 100 100 100 100 100 100 100 100
6 5 5 10 5 7 51 88 100 47 94 100 100 100 100 88 100 100 100 100 100 100 100 100 100 100 100 100 100 100 100 100
5 5 5 4 0 1 0 0 3 52 39 46 41 94 77 100 100 100 100 100 100 100 100 100 100 100 100 100 100 100 100 100
11 3 40 95 8 0 21 4 90 80 29 58 64 51 100 100 100 100 100 100 100 100 100 100 100 100 100 62 84 100 100 100
5 0 0 13 10 11 0 5 5 5 14 64 99 100 100 100 100 100 100 100 90 45 3 5 5 6 24 95 100 100 100 100
0 2 18 62 41 25 100 66 82 17 5 11 66 84 85 73 81 64 8 18 34 79 81 39 74 100 100 100 99 82 63 5
0 1 0 18 16 13 40 62 76 16 1 4 5 5 5 5 13 48 12 14 22 60 100 100 94 47 8 20 57 5 8 73

GFSFLT1_prec_cloud_057.txt.gz
Cloud_Cover
99 53 10 90 72 39 55 100 100 100 100 100 100 100 100 100 100 100 100 97 100 100 100 100 100 100 100 100 100 100 100 100
90 100 8 96 83 100 100 92 100 100 100 100 100 100 100 100 100 100 100 100 100 100 100 100 100 100 100 100 100 100 100 100
98 100 99 100 100 94 99 100 100 99 85 100 100 100 100 100 100 100 100 100 100 100 100 100 98 100 100 100 100 100 100 100
34 68 100 100 100 36 92 48 99 72 53 100 100 100 100 100 100 100 100 100 100 100 100 100 100 100 100 100 100 100 100 95
4 8 100 100 100 99 77 100 100 100 100 100 100 100 100 100 100 100 100 100 100 100 100 100 100 100 100 100 100 100 100 92
12 16 100 100 100 10 62 97 100 99 95 100 100 100 100 100 100 100 100 100 100 100 100 100 100 100 100 100 100 100 100 100
5 15 72 100 100 100 8 5 27 26 5 88 100 100 100 100 100 100 100 100 100 100 100 100 100 100 100 100 100 99 100 100
5 5 67 88 100 98 100 85 100 100 100 95 53 99 100 98 100 100 100 100 100 93 99 100 100 100 100 99 100 100 100 100
5 5 5 6 21 95 97 38 100 100 100 100 98 90 38 97 60 99 100 100 100 92 100 96 100 100 100 100 100 100 100 100
4 5 5 80 22 5 5 27 99 64 17 17 49 54 20 99 100 99 100 100 100 100 100 100 100 100 100 100 100 100 100 100
0 1 7 18 27 5 5 40 40 62 5 21 100 98 98 87 72 66 92 100 100 100 100 100 100 100 100 100 100 100 100 100
0 0 1 16 97 10 1 4 10 54 40 64 100 100 100 100 100 93 55 85 100 100 100 100 100 100 100 100 100 100 100 100
0 0 0 0 22 100 96 3 97 100 100 100 100 100 100 100 100 100 100 100 100 100 100 100 100 100 77 100 100 100 100 100
0 0 1 0 0 0 31 71 100 100 100 100 100 100 100 100 100 100 100 100 100 100 100 100 100 100 100 100 100 100 100 100
0 0 0 0 0 0 0 43 100 100 100 100 100 100 100 100 100 100 100 100 100 99 100 100 100 100 100 100 100 100 100 100
0 0 2 5 3 0 0 5 4 28 100 90 100 100 100 100 88 100 100 100 100 100 100 100 100 100 100 100 100 99 100 100
0 0 0 1 0 0 0 5 44 52 79 97 95 100 100 74 96 100 100 100 100 100 100 100 100 100 97 56 32 89 100 100
11 0 0 0 0 4 0 44 4 0 22 50 71 73 83 100 100 100 100 100 100 91 75 8 0 4 4 22 97 84 84 36
0 0 0 0 1 0 0 2 0 1 33 51 100 93 64 100 66 17 8 2 3 2 23 35 32 94 73 16 47 5 5 5

GFSFLT1_prec_cloud_060.txt.gz
Cloud_Cover
5 94 99 100 100 100 100 100 100 100 100 100 100 100 100 100 100 100 100 100 100 100 100 100 100 100 100 100 100 100 100 100
0 8 96 100 100 69 82 7 67 98 100 100 100 100 100 100 100 100 100 100 100 100 100 100 100 100 85 97 70 100 100 100
34 26 26 88 100 100 100 37 9 88 100 100 100 100 100 100 100 100 100 100 100 100 100 100 95 100 79 66 83 100 100 100
98 30 24 51 100 100 100 100 65 12 74 98 100 100 100 100 100 100 100 100 100 100 100 100 100 37 70 99 100 100 100 100
17 5 0 5 86 100 100 100 86 100 100 100 100 100 100 100 100 100 100 100 100 100 100 100 100 100 100 100 100 100 100 100
2 5 57 7 28 100 100 100 100 100 100 100 100 100 100 100 100 100 100 100 100 100 100 100 100 100 100 100 100 100 100 100
1 1 5 8 63 100 100 100 5 89 100 100 100 100 100 100 100 100 100 100 100 100 100 100 100 100 100 100 100 100 100 92
5 2 0 2 70 100 100 100 58 4 5 6 63 66 44 99 100 100 100 100 100 100 100 100 100 100 100 100 100 100 100 98
0 4 0 0 4 58 100 100 100 95 9 52 97 98 100 99 100 100 100 100 100 100 100 100 100 100 100 100 100 100 100 100
5 0 3 5 0 0 5 47 89 100 100 100 100 100 100 100 100 100 86 90 99 100 100 100 100 100 100 100 100 100 100 100
0 1 2 2 5 0 3 16 6 14 57 95 100 99 98 100 100 100 100 100 100 96 92 100 100 100 100 100 100 100 100 100
3 0 0 0 5 4 3 4 9 24 59 88 100 100 100 100 100 100 100 100 100 100 98 100 100 100 100 100 100 100 100 100
1 2 0 0 0 0 0 5 89 90 100 100 100 100 100 100 100 100 100 100 100 100 85 100 100 100 100 100 100 100 100 100
0 0 0 0 0 0 5 1 23 100 100 100 100 100 100 100 100 100 100 100 100 100 99 100 100 100 100 100 100 100 100 100
0 0 0 0 0 0 0 6 20 100 100 100 100 100 100 100 100 100 100 100 100 100 100 100 100 100 100 100 100 100 100 100
3 15 5 0 0 0 0 0 1 15 100 100 100 100 100 100 100 100 100 100 100 100 100 100 100 100 100 100 100 100 100 100
5 1 0 4 0 1 33 97 47 76 100 100 100 100 100 100 100 100 100 100 100 100 100 100 100 100 100 100 100 100 100 100
84 5 23 3 0 0 7 92 100 80 94 100 100 100 100 100 100 100 100 100 100 100 100 100 100 100 100 100 88 50 100 100
70 53 17 3 0 0 21 72 100 100 100 100 100 100 100 100 100 100 100 100 100 100 100 100 100 82 23 36 50 100 55 18

GFSFLT1_prec_cloud_063.txt.gz
Cloud_Cover
1 62 51 100 100 100 100 93 100 100 100 100 100 100 100 100 100 100 100 100 100 100 100 100 100 100 100 100 100 100 100 100
4 78 86 100 100 100 100 100 100 91 100 100 100 100 100 100 100 100 100 100 100 100 100 100 100 100 100 100 100 100 100 100
57 21 89 100 99 100 100 100 86 73 86 100 99 100 100 100 100 100 100 100 100 100 100 100 100 100 100 100 100 100 100 100
63 73 75 98 77 97 100 98 75 78 99 58 99 100 100 100 100 100 100 100 100 100 100 100 100 100 100 100 100 100 100 100
22 28 86 100 39 100 100 80 100 72 98 97 100 100 100 100 100 100 100 100 100 100 100 100 100 100 100 100 100 100 100 100
0 0 2 24 18 68 82 47 31 52 100 59 100 96 92 100 100 100 100 100 100 100 100 100 100 100 100 100 100 100 100 100
0 0 4 0 0 2 22 61 97 10 5 100 100 100 100 100 98 100 100 100 100 100 100 100 100 100 100 100 100 100 100 100
0 0 0 0 0 0 16 23 5 5 0 4 78 100 100 100 100 100 62 25 83 100 100 100 100 100 100 100 100 100 97 100
3 0 0 0 1 5 50 74 88 97 82 5 10 39 16 94 99 100 86 92 100 100 100 100 100 100 100 100 99 100 100 100
0 0 0 0 0 0 0 25 70 93 95 99 100 100 100 100 100 100 100 100 85 99 68 96 99 100 100 100 100 100 100 100
8 10 0 1 1 0 2 56 100 68 43 25 62 29 100 100 100 100 100 98 100 99 85 58 100 88 100 99 100 100 100 100
94 96 7 95 19 1 5 4 68 100 100 100 100 100 100 100 94 97 100 98 99 100 100 100 100 93 100 100 100 100 100 100
34 3 94 24 1 0 0 0 0 45 100 100 100 100 100 100 100 100 100 100 99 100 100 100 100 100 100 100 100 100 100 100
38 41 91 4 0 0 0 0 0 20 100 100 100 100 100 100 100 100 100 100 100 100 100 100 100 100 100 100 100 100 100 100
100 34 5 26 0 0 0 0 0 0 68 100 100 100 100 100 100 100 100 100 100 100 100 100 100 100 100 100 100 100 100 100
12 90 66 4 0 0 0 0 0 0 0 58 100 88 77 100 100 100 100 100 100 100 100 100 100 100 100 100 100 100 100 100
5 5 6 5 12 64 0 2 3 0 0 0 76 100 100 100 100 100 100 100 100 100 100 100 100 100 100 100 100 100 100 100
5 9 5 5 5 52 13 4 4 0 0 1 44 100 100 100 100 100 100 100 100 100 100 100 100 100 100 100 100 100 100 100
7 83 26 14 2 9 33 33 21 10 27 58 92 100 100 100 100 100 100 100 100 100 100 100 100 100 100 100 100 100 100 100

GFSFLT1_prec_cloud_066.txt.gz
Cloud_Cover
4 46 70 100 90 100 100 100 100 100 100 100 100 100 100 100 100 100 100 100 100 100 100 100 100 100 100 100 100 100 100 100
3 98 100 76 67 99 100 100 100 100 100 100 100 100 100 100 100 100 100 100 100 100 100 100 100 100 100 100 100 100 99 100
77 82 100 99 100 87 100 100 100 100 100 100 100 100 100 100 100 100 100 100 100 100 100 100 100 100 100 100 100 100 100 100
100 91 100 100 99 76 89 100 100 100 100 100 100 100 100 100 100 100 100 100 100 100 100 100 100 100 100 100 100 100 100 100
42 100 100 100 100 97 91 96 93 52 100 98 100 100 100 100 100 100 100 100 100 100 100 100 100 100 98 100 100 100 100 100
14 43 57 100 100 80 87 38 46 83 100 84 80 100 100 100 100 100 100 100 100 100 100 100 100 100 100 100 100 100 100 100
0 0 1 67 63 55 100 100 67 54 97 100 70 70 100 99 100 94 100 100 100 100 100 100 100 100 100 100 100 100 100 100
0 0 1 33 75 60 100 100 100 67 89 50 91 44 77 100 100 92 73 92 100 100 100 100 100 100 100 100 100 100 100 100
0 0 2 0 2 38 82 100 82 30 6 5 0 15 69 100 100 100 100 100 100 100 100 100 100 100 100 68 100 100 98 100
0 0 2 1 0 0 0 12 38 25 76 22 35 16 11 5 28 88 54 48 59 31 94 93 99 33 34 34 53 100 100 80
0 0 0 5 5 0 0 0 47 31 6 59 99 93 96 100 100 100 100 100 100 100 94 80 58 22 7 21 85 80 100 100
4 2 0 5 31 6 6 3 3 93 100 100 88 80 22 81 100 100 100 99 95 83 83 80 66 77 77 94 100 100 100 100
5 2 3 0 2 4 0 0 0 5 97 100 100 92 100 100 100 100 100 100 100 100 100 100 100 99 100 100 100 100 100 100
13 5 98 34 2 5 5 0 0 0 0 100 100 100 100 100 100 100 92 100 100 100 100 91 100 100 100 100 100 100 100 100
75 72 100 19 41 2 2 5 2 0 0 15 100 100 74 100 71 97 100 100 92 100 100 100 100 100 100 100 100 100 100 100
100 89 100 100 75 37 5 1 5 5 1 0 1 78 96 47 28 9 29 25 88 100 100 100 100 100 100 100 100 100 100 100
100 100 74 100 100 51 5 4 2 0 5 5 0 3 17 100 100 100 99 99 96 100 100 100 100 100 100 100 100 100 100 100
100 100 100 100 96 100 8 5 4 5 0 3 5 13 46 80 84 100 100 100 100 100 100 100 100 100 100 100 100 100 100 100
100 100 100 100 99 85 39 67 5 21 0 0 1 6 61 100 100 100 100 100 100 100 100 100 100 100 100 100 100 100 100 100

GFSFLT1_prec_cloud_069.txt.gz
Cloud_Cover
0 42 100 100 100 100 100 100 100 100 100 100 100 100 100 100 100 100 100 100 100 100 100 100 100 100 100 100 100 100 100 100
17 40 44 100 100 100 100 100 100 100 100 100 100 100 100 100 100 100 100 100 100 100 100 100 100 100 100 100 100 100 100 100
56 42 29 64 100 100 99 100 100 100 100 100 100 100 100 100 100 100 100 100 100 100 100 100 100 100 100 100 100 100 100 100
97 40 58 28 92 100 100 90 99 100 100 100 100 100 100 100 100 100 100 100 100 100 100 100 100 100 100 100 100 100 100 100
16 43 32 35 51 100 100 100 97 100 100 100 100 100 100 100 100 100 100 100 100 100 100 100 100 100 100 100 100 100 100 100
0 10 0 0 48 100 63 72 64 62 67 99 95 100 100 100 100 100 100 100 100 100 100 100 100 100 100 100 100 100 100 100
0 0 20 9 39 100 69 30 32 42 40 100 28 52 89 100 100 100 100 100 100 100 100 100 100 100 100 100 100 100 100 100
0 0 19 37 41 100 100 39 50 60 53 100 100 100 100 100 100 100 100 100 100 100 100 100 100 100 100 100 100 100 100 100
0 0 0 10 35 91 52 85 99 99 48 48 100 100 81 88 65 100 100 100 100 100 100 100 100 100 100 100 100 100 100 100
1 3 5 0 0 1 35 72 100 100 53 33 92 100 100 99 100 100 100 100 100 100 100 100 99 88 70 99 93 76 32 58
5 4 4 2 3 0 0 5 71 48 22 32 18 59 30 29 5 5 10 65 5 11 26 66 53 47 5 5 5 5 54 55
41 37 2 5 5 4 0 0 0 3 84 77 85 78 100 100 70 72 97 86 100 100 100 86 24 6 5 10 55 89 99 99
100 90 79 5 4 95 22 0 3 0 5 40 98 34 87 84 98 100 100 96 93 100 100 100 100 41 28 100 100 92 100 100
100 95 90 64 5 5 78 1 0 4 0 0 28 100 100 98 98 100 98 58 5 82 94 100 100 100 100 100 100 100 100 100
100 100 100 89 5 5 5 3 5 4 1 4 0 1 49 91 100 94 100 27 44 34 55 100 100 100 97 100 100 100 100 100
100 100 33 33 11 11 5 5 5 12 25 5 5 0 0 6 54 45 37 60 10 94 81 100 95 86 100 100 100 100 100 100
100 100 100 93 100 98 26 69 6 9 26 5 5 5 5 3 1 71 90 14 11 6 66 50 100 100 100 100 100 100 100 100
100 100 100 100 100 98 95 100 62 9 5 68 4 5 6 7 6 1 0 12 74 100 92 100 100 100 100 100 100 100 100 100
100 100 100 100 100 100 99 55 33 60 30 86 96 26 9 14 38 59 60 100 100 100 100 100 100 100 100 100 100 100 100 100

GFSFLT1_prec_cloud_072.txt.gz
Cloud_Cover
0 0 0 27 100 91 100 100 100 100 99 100 100 100 100 100 100 100 100 100 100 100 99 100 100 100 100 90 100 100 100 100
0 4 0 1 57 100 100 100 100 100 100 100 100 100 100 100 100 100 100 100 100 100 100 100 100 100 100 100 100 100 100 100
0 0 0 0 21 100 98 100 100 100 100 100 100 100 100 100 100 100 100 100 100 100 100 100 100 100 100 100 100 100 100 100
0 0 0 0 24 42 100 100 100 100 100 100 100 100 100 100 100 100 100 100 100 100 100 100 100 100 100 100 100 100 100 100
0 0 0 0 0 51 46 100 100 91 100 100 86 100 100 100 100 100 100 100 100 100 100 100 100 100 100 100 100 100 100 100
0 0 0 0 0 1 50 100 82 84 100 99 87 100 100 100 100 100 100 100 100 100 100 100 100 100 100 100 100 100 100 100
2 0 0 0 0 0 10 14 36 91 100 99 100 100 100 100 90 100 100 100 100 100 100 100 100 100 100 100 100 100 100 100
2 0 0 0 0 0 0 0 2 62 83 99 68 95 100 100 93 100 100 100 100 100 100 100 100 100 100 100 100 100 100 100
1 0 0 0 0 0 0 0 0 2 49 67 90 100 73 100 100 100 100 100 100 100 100 100 100 100 100 100 100 100 100 100
100 5 5 0 0 0 0 0 0 0 1 17 32 22 100 100 100 96 88 99 100 100 100 100 100 100 100 100 100 100 100 100
53 100 26 50 0 0 0 0 0 0 0 0 0 4 23 100 100 95 100 94 100 100 100 100 100 100 100 100 100 100 73 72
83 100 100 100 2 0 3 4 0 0 0 0 0 4 5 14 100 99 86 95 46 96 69 91 45 19 32 26 53 100 89 23
11 18 100 100 87 0 0 0 5 1 4 0 3 5 4 98 54 86 100 100 100 99 67 63 96 100 77 98 67 37 26 77
5 33 100 100 100 24 0 0 2 5 0 1 0 1 2 24 24 7 14 57 74 100 100 100 79 26 83 83 98 93 100 96
5 8 99 100 100 99 36 5 1 5 5 5 5 2 0 0 4 22 5 17 83 48 6 39 74 20 56 77 98 100 99 100
87 22 5 40 100 99 93 34 5 5 10 53 5 5 5 1 0 1 46 13 5 5 5 47 55 89 100 100 100 100 100 99
100 30 42 100 94 100 75 100 100 11 5 5 5 27 6 5 4 0 1 3 11 5 5 5 12 21 52 100 69 92 100 100
100 100 100 100 100 100 100 58 76 42 25 6 6 25 36 6 18 45 25 17 26 6 11 31 27 71 100 100 100 100 100 100
51 100 100 100 100 100 100 100 100 100 97 69 17 67 97 28 23 5 28 36 66 59 55 56 85 100 100 100 100 100 100 100

GFSFLT1_prec_cloud_078.txt.gz
Cloud_Cover
0 0 0 0 0 9 99 100 100 100 100 100 100 100 100 100 100 100 100 100 100 100 100 100 100 100 100 100 100 100 100 100
0 0 0 0 0 0 100 100 100 100 100 100 100 100 100 100 100 100 100 100 100 100 100 100 100 100 100 100 100 100 100 100
0 0 0 0 0 0 36 100 100 100 100 100 100 100 100 100 100 100 100 100 100 98 100 100 100 100 100 100 100 100 100 100
0 0 0 0 0 0 22 37 100 100 100 100 100 100 100 100 100 100 100 100 100 100 100 100 100 100 100 100 100 100 100 100
0 0 0 0 0 0 0 5 100 49 100 100 100 100 100 98 99 88 100 100 100 100 100 100 100 100 100 100 100 100 100 100
0 0 0 0 0 0 0 3 100 95 99 100 100 100 100 100 100 100 100 100 100 100 100 100 100 100 100 100 100 100 100 100
0 0 0 0 0 0 0 0 14 100 100 100 100 100 100 100 95 100 100 100 100 100 100 100 100 100 100 100 100 100 100 100
0 0 0 0 0 0 0 0 7 37 100 98 45 62 70 50 93 100 99 99 100 100 100 100 100 100 100 100 100 100 100 100
5 5 0 0 0 28 0 2 0 0 32 82 83 81 100 82 92 100 20 83 91 100 100 100 100 100 100 100 100 100 100 100
5 5 0 0 0 9 68 100 90 0 46 100 100 100 100 100 96 91 94 24 25 100 100 100 92 100 100 100 100 100 100 100
100 25 0 0 0 0 100 100 100 12 1 1 85 100 95 100 100 100 88 99 10 25 42 53 77 26 100 100 100 100 100 100
100 100 99 8 0 0 0 58 21 96 100 40 0 26 64 100 100 100 100 100 47 98 100 100 100 100 100 100 100 100 100 100
100 100 75 5 1 4 3 5 3 2 100 100 4 0 0 0 31 2 19 42 44 3 64 100 100 100 100 100 100 100 100 100
78 61 67 6 5 5 0 0 1 2 9 100 33 1 0 0 0 14 0 0 0 15 3 27 20 4 5 21 93 100 92 99
83 99 100 98 17 34 3 3 0 3 5 12 54 50 5 5 1 0 5 2 10 16 4 14 14 4 0 4 5 5 5 33
48 98 79 100 100 84 62 5 5 3 5 5 4 5 5 72 86 3 1 8 18 8 19 8 2 0 1 2 5 5 5 12
100 100 98 100 100 92 76 12 5 5 5 5 5 5 5 34 100 100 100 5 0 2 12 41 24 5 5 5 5 5 5 67
100 100 100 100 100 100 86 21 22 5 5 6 5 5 85 100 72 100 100 100 11 5 5 23 60 80 92 95 78 20 93 98
100 100 100 100 100 100 100 99 100 46 83 100 99 88 50 96 93 71 100 95 100 99 15 5 28 74 45 100 88 92 99 99

GFSFLT1_prec_cloud_081.txt.gz
Cloud_Cover
6 0 0 0 0 0 32 81 100 100 100 99 99 100 100 100 100 100 100 100 100 100 100 100 100 100 100 100 100 100 100 100
6 2 0 0 0 1 22 100 100 100 100 98 100 100 100 100 100 100 100 100 100 100 100 100 100 100 100 100 100 99 100 100
6 5 0 0 0 5 0 100 100 100 100 100 100 100 99 100 98 100 100 100 100 100 100 100 100 100 100 100 100 97 100 100
74 58 2 0 0 2 27 100 100 100 100 100 100 100 100 100 100 100 100 100 100 100 100 100 100 100 100 100 100 100 100 100
100 100 4 0 0 0 3 74 91 82 100 100 100 100 100 100 100 100 100 100 100 100 100 100 100 100 100 100 100 100 100 100
100 55 5 0 0 0 0 11 65 91 86 100 100 99 100 100 100 97 100 100 100 100 99 100 100 100 100 100 100 100 100 100
100 65 7 5 3 0 0 0 63 100 100 100 100 89 87 100 100 100 100 100 100 100 100 100 100 100 100 100 100 100 100 100
100 69 7 5 5 0 0 0 1 98 99 100 100 93 100 100 100 86 100 100 100 100 100 100 100 100 100 100 100 100 100 100
100 100 88 5 5 5 0 0 0 48 100 100 100 100 100 100 100 100 91 100 100 100 100 100 100 100 100 100 100 100 100 100
100 100 100 52 5 5 0 0 44 56 58 100 100 100 97 100 84 100 100 70 100 96 100 100 100 100 100 100 100 100 100 100
100 100 100 100 57 5 0 0 0 28 73 58 100 35 31 45 44 79 100 100 93 82 68 72 99 96 100 100 100 100 100 100
100 100 100 100 100 29 0 0 0 1 5 12 11 71 97 90 100 90 100 99 100 50 2 20 38 42 76 86 91 100 100 100
100 100 100 100 100 98 100 7 3 5 50 5 0 4 16 100 100 100 100 100 100 88 22 12 0 2 62 72 100 99 100 50
78 95 100 100 100 100 100 100 100 28 5 5 5 5 0 0 38 91 94 100 100 100 93 7 0 4 1 2 46 36 63 78
100 100 49 15 94 98 82 7 21 86 24 5 5 5 5 2 2 0 0 4 34 26 5 7 0 0 0 4 4 5 5 5
100 24 29 42 51 15 53 100 100 56 5 7 6 10 5 12 6 5 0 0 4 5 4 11 7 14 2 2 5 5 5 5
100 94 100 100 99 90 100 100 100 96 95 72 29 13 32 20 8 8 5 1 13 36 100 100 98 16 26 33 17 28 23 6
100 100 100 97 53 98 57 95 40 74 100 94 60 35 5 5 69 83 82 80 23 5 64 100 100 100 93 78 22 26 28 6
100 100 100 99 100 11 49 69 18 7 5 73 100 95 56 26 5 5 5 5 5 5 25 8 47 83 100 100 86 89 65 32

GFSFLT1_prec_cloud_084.txt.gz
Cloud_Cover
5 10 6 5 38 69 100 53 88 85 100 100 100 100 100 100 100 100 100 100 100 100 100 100 100 100 100 100 100 100 100 100
5 13 5 26 72 83 100 100 96 100 100 100 100 100 100 100 100 100 100 100 100 100 100 100 100 100 100 100 100 100 100 100
3 52 18 9 92 58 46 80 100 77 100 100 100 98 100 100 100 100 100 100 100 100 100 100 100 100 100 100 100 100 100 100
5 96 5 27 79 84 0 5 100 100 100 97 100 100 100 100 100 100 100 100 100 100 100 100 100 100 100 100 100 100 100 100
5 96 7 75 49 42 12 11 81 100 100 100 100 100 100 100 100 100 98 100 100 100 100 100 100 100 100 100 100 100 100 100
5 76 32 100 43 54 33 96 94 98 100 100 100 100 100 100 100 100 96 100 100 100 100 100 100 100 100 100 100 100 100 100
26 22 76 100 42 71 100 100 100 100 100 100 100 100 100 90 100 100 100 97 94 100 100 100 100 100 100 100 100 100 100 100
98 6 99 100 86 52 97 100 100 100 69 97 100 100 100 87 78 34 67 97 100 100 100 100 100 100 100 100 100 100 100 100
100 61 58 100 70 18 23 79 94 99 56 96 100 100 100 100 97 11 0 4 100 100 100 100 100 100 100 100 100 100 100 100
100 80 100 100 100 100 5 6 3 10 12 80 100 100 100 100 100 100 22 3 5 21 100 100 100 100 100 100 100 100 100 100
100 81 100 100 100 100 86 10 5 0 0 1 63 100 100 100 100 100 100 100 48 85 73 84 99 100 100 100 100 100 100 100
100 100 100 100 100 100 100 100 30 4 0 5 6 100 100 100 100 100 100 100 100 86 56 54 44 65 50 45 40 67 100 100
100 100 100 100 100 100 100 100 78 5 3 14 5 38 100 100 100 38 81 100 100 100 100 92 22 21 0 0 0 5 95 36
100 100 100 100 100 100 100 100 100 100 100 80 32 40 81 56 65 99 100 100 100 100 100 100 97 20 4 5 3 0 20 4
100 100 100 100 100 100 100 100 100 100 100 100 88 31 13 7 5 5 44 87 100 100 100 100 100 97 46 34 7 3 5 5
97 100 100 100 100 100 100 100 100 100 100 100 100 68 12 31 5 12 30 43 5 39 30 57 95 99 17 10 38 56 31 6
99 100 100 96 100 100 100 100 100 100 100 100 100 100 100 100 40 38 5 56 29 32 13 16 4 5 5 5 5 32 80 57
100 99 100 92 100 96 83 99 90 38 17 85 97 100 100 100 100 99 61 66 83 56 55 69 59 72 74 70 65 55 69 54
100 100 100 95 100 96 91 82 87 98 88 97 93 74 98 100 100 100 100 100 100 100 100 71 36 100 100 97 66 73 78 98

GFSFLT1_prec_cloud_087.txt.gz
Cloud_Cover
0 0 0 9 45 98 91 53 69 100 56 61 96 100 100 100 100 100 100 100 100 100 100 100 100 100 100 100 92 89 100 100
0 0 4 74 100 100 100 89 100 100 100 100 100 100 100 100 100 100 100 100 100 100 100 100 100 100 100 100 100 98 100 100
0 2 68 100 100 100 100 100 100 100 100 96 96 100 100 100 100 100 100 100 100 100 100 100 100 100 100 100 100 100 100 100
3 19 77 100 100 100 100 100 100 62 100 100 98 100 100 100 100 100 100 100 100 100 100 100 100 100 100 100 100 100 100 100
70 60 67 100 100 100 100 100 100 100 62 76 90 77 100 100 100 100 100 100 100 100 100 100 100 100 100 100 100 100 100 100
100 100 17 44 100 99 100 100 100 100 100 69 67 100 100 100 100 100 100 100 100 100 100 100 100 100 100 100 100 100 100 100
100 100 52 64 100 100 100 23 71 100 100 96 45 100 99 100 100 97 100 100 100 100 100 100 100 100 100 100 100 100 100 100
100 100 40 100 100 100 87 93 100 73 66 87 75 67 79 100 100 100 100 100 97 98 100 100 100 100 100 100 100 100 100 100
100 100 4 49 100 100 100 100 100 80 100 97 92 92 62 100 100 41 38 100 50 96 64 99 100 100 100 100 100 100 100 100
100 49 9 11 77 99 99 100 100 100 100 100 100 65 82 50 7 21 0 0 5 5 60 95 83 86 100 100 100 100 100 100
100 74 100 22 22 50 61 100 100 100 100 100 100 63 67 60 6 4 0 0 0 3 38 89 97 99 100 100 73 100 100 100
100 100 98 70 54 48 89 100 100 100 100 99 76 59 59 99 100 80 92 43 0 0 0 10 11 62 97 100 76 99 100 100
100 100 100 83 31 100 100 100 100 100 100 100 51 42 33 100 100 100 100 100 93 92 26 0 3 60 52 21 93 94 88 11
100 100 100 100 16 100 100 100 100 100 100 100 98 58 85 61 100 100 100 100 100 100 100 86 16 2 0 0 0 4 10 8
100 100 100 100 95 100 100 100 100 100 100 100 100 100 100 94 98 100 98 85 100 99 100 100 100 100 90 20 1 0 0 66
100 100 100 100 100 100 100 100 100 100 100 100 100 100 100 100 100 100 99 83 58 12 6 33 96 100 100 100 100 84 18 4
100 100 100 100 100 100 100 100 100 100 100 100 100 100 100 100 100 100 100 100 94 83 48 45 64 82 48 11 57 80 37 34
100 100 100 100 100 100 100 100 100 94 100 100 100 100 100 100 100 100 100 100 100 100 100 99 99 100 100 100 92 9 74 33
100 100 100 100 100 100 100 100 100 100 100 100 100 100 100 100 100 100 100 100 100 100 100 100 100 100 100 100 100 100 100 74

GFSFLT1_prec_cloud_090.txt.gz
Cloud_Cover
5 5 2 0 13 56 100 100 100 100 100 100 100 100 100 100 100 100 100 100 100 100 100 100 100 100 100 100 100 100 100 97
1 5 4 26 62 69 100 100 100 100 100 100 100 100 100 100 100 100 100 100 100 100 100 100 100 100 100 100 100 100 100 97
5 5 17 6 42 95 100 100 100 100 100 100 38 90 100 100 100 100 100 100 100 100 100 100 100 100 100 100 100 100 100 100
9 33 35 35 36 98 100 100 100 100 100 99 61 98 100 100 100 100 100 100 100 100 100 100 100 100 100 100 100 100 100 100
41 4 46 68 60 99 100 100 96 100 100 100 100 99 100 97 100 100 100 100 100 100 100 100 100 100 100 100 97 100 100 100
100 4 5 8 100 100 100 100 100 100 100 100 100 100 61 79 100 100 100 100 100 100 100 100 100 100 100 100 100 100 100 100
86 0 1 46 81 100 100 100 100 100 100 100 100 100 41 69 100 100 100 100 100 100 100 100 100 100 100 100 100 100 100 100
2 0 9 44 84 100 100 100 100 100 100 100 100 93 4 55 100 100 100 100 100 100 100 100 100 100 100 100 100 100 100 100
0 2 2 88 72 100 100 100 100 100 100 100 100 51 19 100 100 100 100 100 100 100 100 100 100 100 100 100 100 100 100 100
5 5 72 100 59 100 93 37 38 43 100 98 95 100 61 97 47 100 100 94 55 95 47 44 98 97 99 98 97 100 100 100
1 66 100 100 46 100 80 75 97 26 66 89 92 100 95 97 100 100 95 37 18 8 84 82 9 12 10 42 99 100 94 100
100 100 100 100 100 100 100 100 100 93 100 100 100 100 99 64 100 64 18 2 9 18 0 13 16 5 26 78 90 100 85 91
100 100 100 100 100 100 100 100 100 100 100 100 100 100 99 45 100 100 93 13 5 35 22 6 16 49 61 95 95 97 100 20
100 100 100 100 100 100 100 88 97 99 100 100 100 100 100 83 99 100 100 100 100 96 33 25 19 51 83 99 100 52 36 23
100 100 100 100 100 100 100 100 100 100 98 100 100 100 100 100 100 88 100 100 100 100 100 98 100 100 88 63 82 94 100 74
100 100 100 100 100 100 100 100 100 100 100 100 100 100 100 100 100 100 100 99 99 100 98 87 85 88 97 43 7 8 38 42
100 100 100 100 100 100 100 100 100 100 100 100 100 100 100 100 100 100 100 100 100 100 93 100 100 100 100 100 100 56 86 100
100 100 100 100 100 100 100 100 100 100 100 100 100 100 100 100 100 100 100 100 100 100 100 100 100 100 100 100 100 100 100 100
100 100 100 100 100 100 100 100 100 100 100 100 100 100 100 100 100 100 100 100 100 100 100 100 100 100 100 100 100 100 100 100

GFSFLT1_prec_cloud_096.txt.gz
Cloud_Cover
52 5 99 66 34 5 5 5 42 100 100 100 100 100 100 100 100 86 100 100 100 100 100 100 100 100 100 100 100 100 100 100
0 0 5 100 100 100 100 76 84 100 100 100 100 100 100 100 46 40 100 100 100 100 100 100 100 100 100 100 100 100 100 100
1 2 5 8 5 87 100 9 100 100 46 17 60 87 100 90 80 41 100 100 100 100 100 100 100 100 100 100 100 100 100 100
2 0 0 2 5 8 2 5 100 100 8 26 63 100 100 100 75 96 100 100 100 100 100 100 100 100 100 100 100 100 100 100
4 5 0 1 24 99 5 7 100 100 57 22 4 9 39 56 38 97 100 100 100 100 100 100 100 100 100 100 100 100 100 100
5 5 4 0 2 5 5 54 100 100 100 6 4 4 5 77 49 98 100 100 100 100 100 100 100 100 100 100 100 100 100 100
5 5 5 5 5 5 5 100 100 100 96 28 5 0 30 87 53 88 100 100 100 100 100 100 100 100 100 100 100 100 100 100
31 19 5 8 5 5 62 100 100 100 100 59 25 5 58 78 49 94 100 100 100 100 100 100 100 100 100 100 100 100 100 100
60 48 14 5 5 5 94 100 100 100 100 84 34 6 60 80 100 42 100 100 100 100 100 100 100 100 100 100 100 100 100 100
52 63 6 39 100 100 100 100 85 100 100 100 77 46 50 100 93 100 100 94 100 100 100 100 100 100 100 100 100 100 100 100
32 100 67 100 100 100 100 100 100 100 100 100 94 58 96 100 100 60 52 99 97 100 100 100 100 100 100 100 100 100 100 100
90 100 100 100 100 100 100 100 100 100 100 100 100 100 100 100 100 66 98 98 100 99 100 100 100 100 100 100 100 100 100 100
93 100 100 100 100 100 100 100 100 100 100 100 100 73 100 100 100 100 100 89 100 100 96 100 100 90 100 100 100 100 100 59
67 100 100 100 100 100 100 100 100 100 100 100 100 100 100 100 100 91 72 87 80 96 95 94 100 100 100 100 94 44 61 67
100 100 100 100 100 100 100 100 100 100 100 100 100 100 100 100 100 84 100 100 100 100 100 100 99 98 100 100 100 96 99 98
100 100 100 100 100 100 100 100 100 100 100 100 100 100 100 100 100 100 100 100 100 100 100 100 100 100 100 100 100 100 100 100
100 100 100 100 100 100 100 100 100 100 100 100 100 100 100 100 100 100 100 100 100 100 100 100 100 100 100 100 100 100 100 100
100 100 100 100 100 100 100 100 100 100 100 100 100 100 100 100 100 100 100 100 100 100 100 100 100 100 100 98 79 64 96 100
100 100 100 100 100 100 100 100 100 100 100 100 100 100 100 100 100 100 100 100 100 100 100 100 100 100 100 100 100 100 100 100

GFSFLT1_prec_cloud_099.txt.gz
Cloud_Cover
5 5 16 7 4 2 1 0 12 87 100 100 100 100 100 95 38 43 67 74 73 79 91 99 92 96 85 95 100 100 100 100
5 5 48 68 89 5 1 4 47 100 100 100 100 100 100 97 21 42 42 15 33 77 86 100 100 100 96 100 100 100 100 100
8 64 99 21 100 18 5 3 5 62 100 97 53 75 100 44 8 48 68 47 46 52 81 100 100 100 100 100 100 100 100 100
39 27 10 55 100 100 19 5 5 30 89 48 31 72 100 99 9 94 48 51 90 100 100 100 100 100 100 100 100 100 100 100
5 5 5 8 37 80 95 5 0 22 36 37 20 10 36 28 26 34 38 91 99 100 100 100 100 100 100 100 100 100 100 100
5 5 5 47 24 54 58 5 5 23 5 8 45 21 1 0 0 11 74 100 100 100 100 100 100 100 100 100 100 100 100 100
100 100 64 52 63 8 93 91 80 57 0 14 31 28 5 0 0 20 100 100 100 100 100 100 100 100 100 100 100 100 100 100
100 89 100 100 100 100 100 72 58 95 79 26 59 33 3 0 2 87 72 100 100 100 100 100 100 100 100 100 100 100 100 100
94 100 100 100 100 100 100 99 99 100 100 60 95 46 3 0 3 56 70 100 100 100 100 100 100 100 100 100 100 100 100 100
100 100 100 100 100 57 100 93 100 100 100 100 99 58 3 5 8 49 9 85 100 100 100 100 100 100 100 100 100 100 100 100
99 100 92 96 100 50 64 79 60 100 100 100 100 73 7 5 5 86 40 82 100 100 100 100 100 100 100 100 100 100 100 100
99 100 100 91 96 90 64 100 100 100 100 100 100 100 33 5 61 100 100 100 100 100 100 100 100 100 100 100 100 100 100 100
93 98 100 100 100 100 100 100 100 100 100 100 100 100 90 53 100 83 100 100 96 100 100 100 100 100 100 100 100 100 100 100
49 100 100 100 100 100 100 100 100 100 100 100 100 100 100 88 100 100 100 93 100 100 86 100 100 100 100 100 100 100 100 100
98 100 100 100 100 100 100 100 100 100 100 100 100 100 85 100 100 84 100 67 82 91 98 93 97 100 100 93 100 100 100 100
100 100 100 100 100 100 100 100 100 100 100 100 100 100 100 100 80 71 100 100 100 81 99 91 99 99 100 100 100 97 65 46
100 100 100 100 100 100 100 100 100 100 100 100 100 100 100 100 100 100 96 100 100 100 100 100 100 100 100 100 100 100 100 100
100 100 100 100 100 100 100 100 100 100 100 100 100 100 100 100 100 100 100 100 100 100 100 100 100 100 100 100 100 100 100 100
100 100 100 100 100 100 100 100 100 100 100 100 100 100 100 100 100 100 100 100 100 100 100 100 100 100 100 100 100 98 100 100

GFSFLT1_prec_cloud_105.txt.gz
Cloud_Cover
67 84 100 60 17 0 0 60 100 26 5 5 15 5 5 5 1 0 0 1 0 15 14 11 10 13 46 96 79 69 92 76
100 100 100 100 67 0 0 5 87 62 5 11 32 5 5 1 0 0 0 0 0 10 16 11 7 6 44 41 88 54 100 75
81 100 99 100 77 0 0 21 100 99 5 5 6 83 47 99 4 21 15 0 0 16 22 26 25 40 40 77 49 99 94 70
100 66 82 88 100 48 2 3 11 90 100 9 5 19 30 100 94 15 22 30 4 0 0 16 47 63 89 100 74 100 100 100
79 5 5 5 98 98 72 18 10 94 100 100 67 5 5 24 100 100 100 6 1 0 21 20 50 95 100 72 100 100 100 100
33 5 5 8 100 100 100 100 100 100 100 100 89 5 5 9 92 67 81 44 93 35 38 99 49 100 100 89 100 100 100 100
10 50 91 100 100 100 100 100 100 90 100 100 88 6 53 34 5 5 94 46 93 84 100 100 100 100 100 100 100 100 100 100
20 100 100 100 100 100 100 100 100 100 100 100 100 90 100 67 5 19 89 48 89 100 100 100 100 100 100 100 100 100 100 100
55 80 100 100 100 100 100 100 100 90 100 100 100 100 100 64 59 50 31 80 93 100 98 100 100 96 100 100 100 100 100 100
29 58 100 73 100 100 100 100 100 92 100 100 100 100 85 100 100 58 42 80 91 26 100 100 96 100 100 100 100 100 100 100
100 100 87 90 100 100 100 100 100 83 100 100 100 100 83 100 100 100 85 5 8 100 100 100 100 100 100 100 100 100 100 100
96 100 92 100 100 100 100 100 100 100 100 100 100 100 79 99 100 100 69 18 38 99 100 100 100 100 100 100 100 100 100 100
100 100 100 100 100 100 100 100 100 100 100 99 100 100 99 97 100 100 82 12 72 100 100 100 100 95 100 100 100 100 100 100
100 100 100 100 100 100 100 100 100 100 100 100 100 100 94 84 96 100 100 56 100 100 100 100 100 88 100 100 100 100 100 100
100 100 100 100 100 100 100 100 100 100 100 100 100 89 59 100 100 100 100 100 100 100 97 100 100 100 81 100 100 100 100 100
100 100 100 100 100 100 100 100 100 100 100 100 100 100 100 100 100 100 100 100 100 100 100 100 100 100 100 100 100 100 100 100
100 100 100 100 100 100 100 100 100 100 100 100 100 100 100 100 100 100 100 100 100 100 100 100 100 100 100 100 100 100 100 100
100 100 100 100 100 100 100 100 100 100 100 100 100 100 100 100 100 100 100 100 100 100 100 100 100 100 100 100 100 100 100 100
100 100 100 100 100 100 100 100 100 100 100 100 100 100 100 100 100 100 100 100 100 100 100 100 100 100 100 100 100 100 100 100

GFSFLT1_prec_cloud_108.txt.gz
Cloud_Cover
49 50 27 81 21 0 5 2 0 0 3 79 100 14 8 7 5 6 5 21 27 1 14 3 2 19 60 95 95 100 100 100
93 100 72 100 87 1 4 5 5 4 42 45 11 64 9 36 26 5 17 23 33 34 9 7 15 27 78 100 100 100 100 100
100 100 100 58 94 1 0 8 33 38 1 13 14 8 15 8 44 27 13 26 28 45 41 39 46 49 81 100 100 100 100 100
100 100 29 15 72 32 0 55 72 91 100 49 12 61 100 100 98 53 70 36 37 39 58 51 49 76 74 100 100 100 100 100
48 29 46 55 29 91 5 57 100 100 100 74 16 14 100 100 100 100 12 59 45 50 51 56 56 94 100 100 100 100 99 100
77 5 16 13 53 100 84 100 100 100 100 100 100 28 61 100 100 100 69 99 99 100 97 36 56 84 78 99 100 100 100 74
5 53 98 84 94 100 100 100 100 100 100 94 100 100 100 100 100 100 61 93 72 62 100 93 52 98 100 100 100 100 100 100
5 5 42 100 100 64 100 100 93 100 100 100 100 100 100 100 100 100 60 68 100 100 100 100 96 100 100 92 100 100 100 100
34 10 100 100 100 100 100 91 100 100 100 100 100 100 54 53 5 100 100 99 100 95 100 100 100 100 100 100 100 100 100 100
100 100 100 100 100 100 50 56 100 100 100 100 100 100 94 7 5 100 100 100 100 100 100 100 100 100 100 100 100 100 100 100
100 100 100 100 100 63 68 52 100 100 100 53 100 100 99 100 73 100 100 100 100 100 100 99 75 100 94 97 100 100 100 100
100 100 100 100 100 97 96 71 100 100 100 100 100 100 100 100 100 100 100 100 100 100 100 64 100 100 100 100 100 100 100 100
100 100 100 100 100 100 100 100 100 100 100 100 100 100 100 100 100 100 100 100 100 100 100 74 100 100 100 100 100 100 100 100
100 100 100 100 100 100 100 100 100 100 100 100 100 100 99 100 100 100 100 100 100 100 100 94 100 100 100 100 100 100 100 100
100 100 100 100 100 100 100 100 100 100 100 100 100 100 100 100 100 100 99 100 100 100 99 100 100 100 100 100 100 100 100 100
100 100 100 100 100 100 100 100 100 100 100 100 100 100 100 100 100 94 100 100 90 100 100 100 100 100 100 100 100 100 100 100
99 100 100 100 100 100 100 100 99 100 100 99 100 100 100 100 100 100 100 100 100 100 100 100 100 100 100 100 100 100 100 100
80 100 100 100 100 100 100 100 100 100 100 100 100 100 100 100 100 100 100 100 100 100 100 100 100 100 100 100 100 100 100 100
100 100 100 100 100 100 100 98 80 99 100 100 100 100 100 100 100 100 100 100 100 100 100 100 100 100 100 100 100 100 100 100

GFSFLT1_prec_cloud_111.txt.gz
Cloud_Cover
1 1 0 1 27 97 100 5 91 12 62 65 75 89 98 31 34 30 98 24 30 24 32 34 55 74 91 90 81 100 80 100
76 80 17 5 20 12 100 5 50 32 91 94 99 80 84 68 26 14 5 8 33 41 46 32 52 70 85 78 83 96 100 100
100 30 5 3 0 0 10 34 17 45 27 6 5 45 93 83 72 90 5 18 25 42 44 54 56 83 81 99 94 100 100 100
100 90 6 4 0 3 14 99 47 100 100 88 26 72 79 99 98 72 45 35 73 58 46 85 74 87 100 100 100 100 100 100
90 100 18 5 0 56 96 99 99 100 100 100 82 92 77 33 51 100 83 90 61 97 99 66 97 100 100 100 100 100 100 100
0 4 88 4 0 15 100 100 100 100 100 100 100 100 100 100 100 71 100 100 75 94 100 100 100 100 94 95 100 100 100 100
8 5 5 0 0 0 58 100 100 100 100 100 100 100 99 100 100 100 100 100 100 96 100 100 100 100 100 100 89 100 100 100
81 89 67 30 29 30 10 100 100 100 100 100 100 100 87 100 95 70 100 100 100 100 79 100 100 100 100 99 100 100 100 100
100 100 100 100 100 97 76 76 100 100 100 100 100 100 100 100 100 80 95 100 100 100 97 58 70 100 100 100 100 100 99 96
100 100 100 100 100 100 100 91 100 100 100 100 100 100 100 100 100 100 100 100 100 100 100 97 87 100 100 100 100 100 100 100
100 100 100 100 100 100 100 100 100 100 100 100 100 100 100 100 100 100 95 67 100 100 100 70 99 100 100 100 100 100 100 100
100 100 100 100 100 100 100 100 100 100 100 100 100 100 100 100 97 100 85 100 100 100 100 100 100 100 100 100 100 100 100 100
100 100 100 100 100 100 100 100 100 100 100 100 100 100 100 100 100 100 100 98 97 100 100 100 100 88 100 100 100 100 100 100
100 100 100 100 100 100 100 100 100 100 100 100 100 100 100 100 100 100 100 100 100 100 100 100 100 100 97 100 100 100 100 100
100 100 100 100 100 100 100 100 100 100 100 100 100 100 100 100 100 100 100 100 100 100 100 100 100 100 100 100 100 100 100 100
100 100 100 100 100 100 100 94 100 100 100 100 100 100 100 100 100 100 100 100 100 100 100 100 100 100 100 100 100 100 100 100
100 100 100 100 100 100 100 100 100 100 100 100 100 100 100 100 100 100 100 100 100 100 100 100 100 100 100 100 100 100 100 100
100 100 100 100 100 100 100 100 100 100 100 98 100 100 100 100 89 100 100 100 100 100 100 100 100 100 100 100 100 100 100 100
100 100 100 100 100 76 88 100 100 100 100 100 100 100 100 100 100 100 100 100 100 100 100 100 100 100 100 100 100 100 100 100

GFSFLT1_prec_cloud_114.txt.gz
Cloud_Cover
0 3 2 3 1 0 0 24 41 47 71 100 96 95 94 62 41 78 81 77 100 65 96 100 100 100 100 100 100 100 21 28
4 74 5 0 0 0 0 44 66 100 100 100 100 100 100 100 65 98 100 100 68 53 100 92 100 100 100 100 100 100 100 100
4 98 71 5 2 0 0 32 75 100 100 100 100 100 100 100 100 100 100 82 52 59 85 99 100 100 100 100 100 100 100 100
0 97 100 5 5 5 5 62 34 94 100 100 100 100 100 100 100 100 98 56 58 57 82 96 100 100 100 100 100 100 100 100
0 9 32 5 6 15 87 79 94 98 100 100 100 100 100 100 100 100 94 94 78 77 80 90 96 100 100 100 98 100 100 100
49 35 99 9 45 60 100 84 84 100 100 100 100 100 100 100 100 100 100 99 100 100 100 99 86 100 100 100 100 100 100 100
100 99 74 100 39 100 100 96 82 65 83 100 100 100 100 100 100 85 100 99 99 100 100 100 100 100 94 98 100 100 100 100
100 100 100 100 100 100 100 100 96 90 100 100 100 100 100 100 100 94 100 100 100 100 100 100 100 100 100 100 100 100 100 100
100 100 100 100 100 100 100 100 99 84 100 100 100 100 100 100 100 100 100 97 100 100 100 100 100 100 100 100 100 100 100 100
100 100 100 100 100 100 100 100 100 100 100 90 91 100 100 100 100 100 100 100 100 100 100 100 100 100 100 100 100 100 100 100
100 100 100 100 100 100 100 100 100 100 100 100 100 100 100 100 100 100 100 100 100 100 100 100 100 100 100 100 100 100 100 100
100 100 100 100 100 100 100 100 100 95 98 100 100 100 100 100 100 100 100 100 100 100 100 100 100 100 100 100 100 100 100 100
100 100 100 99 100 100 100 100 100 100 100 100 100 100 100 100 100 100 100 100 100 100 100 100 100 100 100 100 100 100 100 100
100 100 100 100 100 100 100 100 100 100 100 100 100 100 100 100 100 100 100 100 100 100 100 100 100 100 100 100 100 100 82 100
100 100 100 100 100 100 100 100 100 100 100 100 100 100 100 100 100 100 100 100 100 100 100 100 100 100 100 100 100 67 100 100
100 100 100 100 100 100 100 100 100 100 100 100 100 100 100 100 100 100 100 100 100 100 100 100 100 100 100 100 100 100 100 100
100 100 100 100 100 100 100 100 100 100 97 100 100 100 100 100 100 100 100 100 100 100 100 100 100 100 100 100 100 100 100 100
100 100 100 100 100 100 100 100 100 100 100 100 94 100 100 100 100 100 100 100 100 100 100 100 100 100 100 100 100 100 100 100
100 100 100 100 100 100 100 100 100 100 100 100 100 93 99 99 100 100 100 100 100 100 100 100 100 100 100 100 100 100 100 100

GFSFLT1_prec_cloud_117.txt.gz
Cloud_Cover
14 79 68 5 3 4 2 5 5 68 5 75 46 71 25 20 8 32 100 100 100 100 100 100 100 100 100 100 100 94 41 34
0 0 3 0 0 0 0 13 30 90 38 61 100 100 100 99 75 45 100 100 100 100 100 100 100 100 100 100 100 100 100 90
0 0 0 0 0 0 20 61 53 66 82 15 52 45 76 95 84 100 100 80 100 100 100 100 100 100 100 100 100 100 100 82
0 0 4 0 2 0 88 100 81 64 99 96 98 87 95 100 100 100 100 46 84 97 100 100 100 100 100 100 100 100 100 100
67 53 81 64 63 83 5 100 100 100 100 76 100 100 100 100 100 100 100 100 95 97 100 100 100 100 100 100 100 100 100 99
100 100 100 100 100 100 100 100 100 100 100 100 100 100 100 100 100 100 100 100 100 100 100 100 100 100 100 100 100 100 100 100
100 100 100 100 100 100 100 100 100 100 100 100 100 100 100 100 100 100 100 100 100 100 100 100 100 100 100 99 96 100 100 95
100 100 100 100 100 100 100 100 100 100 100 100 100 100 100 100 99 100 100 100 100 100 100 100 100 100 100 100 100 100 100 100
100 100 100 100 100 100 100 100 100 100 100 100 100 100 100 100 100 100 100 100 100 100 100 100 100 100 100 100 100 100 100 100
100 100 100 100 100 100 100 100 100 100 100 100 95 100 100 100 100 100 100 100 100 100 100 100 100 100 100 100 100 100 100 100
100 100 100 100 100 100 100 100 100 100 100 100 100 100 100 100 100 100 100 100 100 100 100 100 100 100 100 100 100 100 100 100
100 100 100 100 100 100 100 100 100 100 100 100 100 100 100 100 100 100 100 100 100 100 100 100 100 100 100 100 100 100 100 100
100 100 100 100 100 100 100 100 100 100 100 100 100 100 100 100 100 100 100 100 100 100 100 100 100 100 100 100 100 100 100 100
100 100 100 100 100 100 100 100 100 100 100 100 100 100 100 100 100 100 100 100 100 100 100 100 100 100 100 100 100 100 100 100
100 100 100 100 100 100 100 100 100 100 100 100 100 100 100 100 100 100 100 100 100 100 100 100 100 100 100 100 100 100 100 100
100 100 100 100 100 100 100 100 100 99 96 100 100 100 100 100 100 100 100 100 100 100 100 100 100 100 100 100 100 100 100 100
100 100 100 100 100 100 100 100 100 100 100 100 100 93 100 100 100 100 100 100 100 100 100 100 100 100 100 100 100 100 100 100
100 100 100 100 100 100 100 100 100 100 100 100 100 100 90 100 100 100 100 100 100 100 100 100 100 100 100 100 100 100 100 100
100 100 100 100 100 100 100 100 100 100 100 100 100 100 100 100 100 100 100 100 100 100 100 100 100 100 100 100 100 100 100 100

GFSFLT1_prec_cloud_120.txt.gz
Cloud_Cover
1 16 55 73 28 20 100 100 100 100 100 84 100 86 0 0 0 4 100 100 100 100 100 100 100 100 100 100 100 97 100 100
0 0 0 1 1 0 4 56 100 100 100 56 100 100 5 0 0 0 17 100 100 100 100 100 100 100 88 100 100 100 100 100
0 1 0 0 0 0 0 4 5 99 100 100 89 5 0 0 0 1 5 92 100 100 100 100 100 100 100 100 98 100 100 100
14 0 2 29 0 0 0 2 5 28 100 99 82 12 0 3 5 6 6 47 100 100 100 100 100 100 100 100 90 100 100 100
100 100 100 99 90 69 9 70 29 17 97 98 90 7 3 52 6 12 20 88 16 100 100 100 100 100 100 100 100 100 100 100
100 100 100 100 100 100 98 100 100 100 100 98 14 58 8 42 34 99 82 100 36 100 100 100 100 100 100 100 98 100 100 100
100 100 100 100 100 100 100 100 100 100 100 100 99 100 100 100 100 100 100 100 88 100 100 100 100 100 100 100 100 100 100 100
100 100 100 100 100 100 100 100 100 100 100 100 100 100 100 100 100 100 100 100 100 100 97 100 100 100 100 100 100 100 100 100
100 100 100 100 100 100 100 100 100 100 100 100 100 100 100 100 100 100 100 100 100 100 100 100 100 100 100 100 100 100 98 100
100 100 100 100 100 100 100 100 100 100 100 98 99 100 100 100 100 100 100 100 98 100 100 100 100 100 100 100 100 100 100 100
100 100 100 100 100 100 100 100 100 100 100 100 100 96 100 100 100 100 100 100 100 100 100 100 100 100 100 100 100 100 100 100
100 100 100 100 100 100 100 100 100 100 100 100 100 100 100 100 100 100 100 100 100 100 100 100 100 100 100 100 100 100 100 100
100 100 100 100 100 100 100 100 100 100 100 100 100 100 100 100 100 100 100 98 100 100 100 100 100 100 100 100 100 100 100 100
100 100 100 100 100 100 100 100 100 100 100 99 100 100 100 100 100 100 100 100 100 100 100 100 100 100 100 100 100 100 100 100
100 100 100 100 100 100 100 100 100 100 100 100 100 100 100 100 100 100 100 100 100 100 100 100 100 100 100 100 100 100 100 100
100 100 100 100 100 100 100 100 94 100 100 100 100 100 100 100 100 100 100 100 100 100 100 100 100 100 100 100 100 100 100 100
100 100 100 100 100 100 100 100 100 100 100 100 100 100 100 100 100 100 100 100 100 100 100 100 100 100 100 100 100 100 100 100
100 100 100 100 100 100 100 100 100 100 100 100 100 100 100 99 100 100 100 100 92 100 100 100 100 100 100 100 100 100 100 100
100 100 100 100 100 100 100 100 100 100 100 100 100 100 100 100 100 100 100 100 100 100 100 100 100 100 100 100 100 100 100 100

GFSFLT1_prec_cloud_123.txt.gz
Cloud_Cover
6 3 1 1 4 16 6 100 100 100 100 100 100 100 100 99 22 5 43 100 100 100 89 89 40 100 100 86 100 100 100 98
2 0 0 0 0 4 1 9 81 100 100 100 100 100 100 100 100 78 20 29 100 100 100 100 100 100 100 100 49 96 100 100
6 6 15 0 0 0 0 0 0 0 82 99 99 100 100 100 100 66 5 70 90 100 100 100 100 100 100 100 100 90 100 100
63 84 65 93 69 22 0 0 0 0 0 100 20 100 97 100 100 74 99 23 59 100 100 100 100 100 100 100 100 100 100 100
100 100 100 100 99 80 1 2 0 0 0 47 98 98 5 68 100 88 8 5 94 100 100 100 100 100 100 100 100 100 100 62
99 100 86 100 100 100 100 97 100 70 64 44 92 84 55 5 5 5 1 1 34 96 100 100 100 100 100 100 100 100 100 46
100 92 66 100 99 100 100 100 100 100 100 21 61 33 100 90 64 100 98 54 46 60 96 100 100 100 100 100 100 100 100 72
100 100 99 100 100 100 100 100 100 100 100 100 83 77 100 100 100 100 100 100 100 100 100 87 100 100 100 100 100 100 100 100
100 100 100 100 100 100 100 100 100 100 100 100 100 100 100 100 100 100 100 100 100 100 100 100 100 89 100 100 100 100 100 100
100 100 100 100 100 100 100 100 100 100 100 100 100 100 100 100 100 100 100 100 100 100 100 100 100 100 100 100 100 100 100 69
100 100 100 100 100 100 100 100 100 100 100 100 100 100 100 100 100 100 100 100 100 100 100 100 100 100 100 100 100 100 100 100
100 100 100 100 100 100 100 100 100 100 100 100 100 100 100 100 100 100 100 100 100 100 100 100 100 100 100 100 100 100 100 100
100 100 100 100 100 100 100 100 100 100 100 100 100 100 100 100 100 100 100 100 100 100 100 100 100 100 100 100 100 100 100 100
100 100 100 100 100 100 100 100 100 100 99 100 100 100 100 100 100 100 100 100 100 100 100 100 100 100 100 100 100 100 100 100
100 100 100 100 100 100 100 100 100 100 100 100 100 100 100 100 100 100 100 100 100 100 100 100 100 100 100 100 100 100 100 100
100 100 100 100 100 100 100 100 100 100 100 100 100 100 100 100 100 100 100 100 100 100 100 100 100 100 100 100 100 100 100 100
100 100 100 100 100 100 100 100 100 100 100 100 100 82 98 76 89 100 99 100 100 100 100 100 100 100 100 99 100 100 100 100
100 100 100 100 100 100 100 100 100 100 100 100 100 100 100 100 100 100 100 100 100 100 100 100 100 100 90 96 87 100 100 100
100 100 100 100 100 100 100 99 92 100 100 100 100 100 100 100 100 100 100 100 100 100 100 100 100 100 100 96 74 95 100 100

GFSFLT1_prec_cloud_126.txt.gz
Cloud_Cover
0 0 0 0 0 0 0 0 3 55 26 92 100 98 99 100 100 100 28 5 0 0 1 23 5 40 18 93 13 6 17 5
0 0 0 0 0 0 0 0 0 0 59 14 100 100 18 100 100 100 100 99 9 87 5 21 8 67 5 5 0 10 5 19
5 5 5 5 0 0 0 0 0 0 0 5 3 58 94 100 100 100 100 100 100 99 99 73 21 8 40 35 48 47 7 16
5 9 57 35 13 2 29 0 0 0 0 0 15 3 11 87 100 100 100 100 100 100 100 100 96 87 99 98 100 100 27 5
18 40 100 100 100 100 5 98 0 0 0 0 0 5 100 56 100 100 100 100 100 100 100 100 100 100 100 100 100 100 100 5
84 100 98 100 100 100 99 83 16 4 3 3 65 13 76 100 96 100 94 100 99 98 39 100 100 100 100 100 100 100 100 57
100 100 72 68 94 82 96 100 100 100 100 98 34 36 22 100 86 100 8 70 99 98 100 100 100 100 100 100 100 100 100 100
100 96 93 95 98 97 100 100 100 100 100 100 100 70 100 100 100 100 79 100 100 100 100 100 100 100 100 100 100 100 100 100
79 98 100 100 100 100 100 100 100 100 100 100 100 98 100 100 100 100 92 98 100 100 100 100 100 100 100 100 100 100 100 100
100 100 100 100 100 100 100 100 100 100 100 100 100 100 100 100 100 100 100 100 100 100 100 100 100 100 100 100 100 100 100 100
79 100 100 97 100 100 100 100 100 100 100 100 100 100 100 100 100 100 100 100 100 100 100 100 100 100 100 100 100 100 100 100
100 97 100 100 100 100 100 100 100 100 100 100 100 100 100 100 100 100 100 100 100 100 100 100 100 100 100 100 100 100 100 100
100 100 100 100 100 100 100 100 100 100 100 100 100 100 100 100 100 100 100 100 100 100 100 100 100 100 100 100 100 100 100 100
100 100 100 100 100 100 100 100 100 100 100 100 84 100 100 100 100 100 100 100 100 100 100 100 100 100 100 100 100 100 100 100
100 100 100 100 100 100 100 100 100 100 100 100 100 100 100 100 100 100 100 100 100 100 100 100 100 100 100 100 100 100 100 100
100 100 100 100 100 100 100 100 100 100 100 100 100 100 100 100 100 100 100 100 100 100 100 100 100 100 100 100 100 100 100 100
100 100 100 100 100 100 100 100 100 100 100 100 100 100 100 100 100 100 100 100 100 100 100 100 100 100 100 100 100 100 100 100
71 100 100 100 100 100 100 100 100 100 100 100 100 100 100 100 100 100 100 100 100 100 100 100 100 100 100 100 100 100 100 100
90 34 100 100 100 100 100 100 100 100 100 100 100 100 100 100 100 100 100 100 100 100 100 100 100 100 100 100 100 99 100 100

GFSFLT1_prec_cloud_129.txt.gz
Cloud_Cover
0 0 0 0 0 0 0 0 0 0 0 0 48 100 100 96 62 100 100 100 100 100 99 77 82 94 48 5 5 16 45 6
0 0 0 0 0 0 0 5 0 0 0 0 0 0 0 22 100 46 100 100 99 100 100 100 100 100 91 99 100 53 37 6
1 5 5 0 0 0 4 5 16 0 0 0 0 0 0 0 34 88 92 100 100 74 100 100 100 100 100 99 64 69 28 16
5 5 5 5 5 5 5 5 56 5 1 0 0 0 0 0 0 81 69 100 100 99 100 100 100 100 81 100 84 100 73 10
5 5 5 5 5 5 6 31 76 20 11 83 66 65 32 0 0 3 93 78 100 100 86 100 100 100 100 66 100 73 86 6
6 5 5 5 9 16 35 100 100 100 74 25 100 100 100 16 0 6 100 100 100 100 95 66 100 100 100 100 100 95 71 23
94 5 7 25 10 54 100 100 100 96 100 53 100 100 86 4 0 1 51 100 100 100 100 100 100 100 100 100 100 100 100 100
35 49 69 94 58 100 100 100 100 100 100 100 100 100 100 16 3 0 69 100 100 100 100 100 100 100 100 100 100 100 100 100
52 47 72 89 100 100 100 100 100 100 100 100 100 100 99 35 20 11 75 100 100 100 100 100 100 100 98 100 100 100 100 100
90 67 52 98 100 100 100 100 100 100 100 100 100 100 100 100 100 83 96 100 100 100 100 100 100 100 100 100 100 100 100 100
68 58 94 99 100 100 100 100 100 100 100 100 100 100 100 100 100 100 100 100 100 100 100 100 100 100 100 100 100 100 100 100
78 97 100 84 100 100 100 100 100 100 100 100 100 100 100 100 100 100 100 100 100 100 100 100 100 100 100 100 100 100 100 100
100 100 98 100 100 100 100 100 100 100 100 100 100 100 100 100 100 100 100 100 100 100 100 100 100 100 100 100 100 100 100 100
72 99 74 100 100 100 100 100 100 100 100 100 100 100 100 100 100 100 100 100 100 100 100 100 100 100 100 100 100 100 100 100
91 97 100 98 100 100 100 100 100 100 100 100 100 100 100 100 100 100 100 100 100 100 100 100 100 100 100 100 100 100 100 100
100 100 100 99 100 100 100 99 100 100 100 100 100 100 100 100 100 100 100 100 100 100 100 100 100 100 100 100 100 100 100 100
100 100 100 100 100 100 100 100 100 100 100 100 100 100 100 100 100 100 100 100 100 100 100 100 100 100 100 100 100 100 100 100
100 100 100 100 100 100 100 100 100 100 100 100 100 100 100 100 100 100 100 100 100 100 100 100 100 100 100 100 100 100 100 100
100 100 100 100 100 100 100 100 100 100 100 100 100 100 100 100 100 100 100 100 100 100 100 100 100 100 100 100 100 100 100 100

GFSFLT1_prec_cloud_132.txt.gz
Cloud_Cover
0 0 0 0 0 0 0 0 4 4 0 0 0 0 0 0 78 100 100 64 100 100 100 99 100 86 91 84 73 100 71 78
0 0 0 0 0 0 4 5 5 5 5 5 0 0 0 0 0 32 100 100 82 100 100 100 100 99 76 87 100 100 96 100
5 5 5 5 5 5 5 5 5 5 5 10 7 9 0 0 0 0 1 99 84 100 100 100 100 100 100 99 89 100 100 100
5 5 5 5 5 5 5 12 87 96 76 87 89 87 68 2 0 0 0 57 100 74 100 100 100 100 99 100 96 76 63 100
5 5 5 5 5 5 55 100 100 100 100 100 100 100 100 78 33 2 0 5 74 100 99 100 100 100 100 100 94 97 100 98
5 5 5 11 8 59 100 100 100 100 100 100 100 100 100 100 100 96 0 0 28 87 99 100 100 100 100 100 100 100 100 100
5 5 22 90 87 100 100 100 100 100 100 100 100 100 100 100 100 58 0 0 0 96 100 100 100 100 100 100 100 94 100 100
11 15 80 100 100 100 100 100 98 100 100 100 100 100 100 100 100 100 87 0 0 4 100 100 100 100 100 98 100 100 75 94
46 22 56 100 100 100 100 100 100 100 100 100 100 100 100 100 100 68 20 12 5 0 71 100 100 100 100 100 100 100 100 97
66 52 44 100 78 100 100 100 100 100 100 100 100 100 100 100 100 100 100 44 41 81 100 100 100 100 100 100 100 100 100 100
15 66 66 95 100 100 100 100 100 100 100 100 100 100 100 100 100 100 100 100 100 98 66 100 100 100 100 100 100 100 100 100
13 50 83 100 83 90 100 100 100 96 100 100 100 100 100 100 100 100 100 100 100 97 70 100 100 100 100 100 100 100 100 100
5 33 96 100 62 100 61 99 100 100 100 100 100 100 100 100 100 100 100 100 100 100 91 100 100 100 100 100 100 100 100 100
22 55 91 61 100 100 100 100 99 100 100 100 100 100 100 100 100 100 100 100 100 100 100 100 100 100 100 100 100 100 100 100
15 57 96 95 99 97 99 61 100 100 100 100 100 100 100 100 100 100 100 100 100 100 100 100 100 100 100 100 100 100 100 100
95 5 100 100 98 96 100 99 100 99 100 100 100 100 100 100 100 100 100 100 100 100 100 100 100 100 100 100 100 100 100 100
100 65 96 100 69 100 100 100 100 100 100 100 100 100 100 100 100 100 100 100 100 100 100 100 100 100 100 100 100 100 100 100
100 97 100 100 98 96 100 100 100 100 100 100 100 100 100 100 100 100 100 100 100 100 100 100 100 100 100 100 100 100 100 100
98 100 73 100 100 100 100 100 100 100 100 100 100 100 100 100 100 100 100 100 100 100 100 100 100 100 100 100 100 100 100 100